GFSFLT1_sfc_rhum_000.txt.gz
RH
67 60 60 60 61 62 62 65 64 60 62 60 61 65 58 69 78 89 88 89 72 58 59 63 65 64 63 60 56 55 56 55 58
69 64 62 61 64 63 63 62 64 66 65 62 61 65 65 76 76 87 92 88 66 58 58 59 59 59 58 59 57 56 55 56 57
64 65 64 63 63 65 66 66 64 63 65 66 65 69 74 72 75 76 90 81 68 60 60 59 59 59 57 57 58 57 55 56 57
66 68 69 66 65 64 71 70 69 66 65 65 67 73 79 88 80 67 86 79 72 62 58 60 61 60 58 56 59 59 57 56 56
76 78 76 69 69 65 69 70 70 67 64 64 68 76 79 92 91 83 77 73 70 66 59 60 61 61 60 60 58 60 59 58 58
90 88 86 80 72 69 65 69 70 73 75 74 74 79 96 95 98 93 75 67 69 66 64 60 61 60 61 61 61 58 59 59 60
89 93 88 83 80 79 72 71 74 80 92 89 80 95 96 98 98 98 84 72 64 64 64 63 61 62 60 61 62 62 60 59 59
97 98 98 97 96 98 94 95 96 94 94 94 95 94 94 98 98 93 85 78 68 63 62 62 67 63 63 60 60 61 60 61 61
98 99 97 97 98 98 98 99 97 96 95 95 94 94 91 86 87 87 80 77 72 63 60 61 65 69 66 64 61 64 66 63 64
98 98 98 98 98 98 98 98 96 96 96 95 95 92 92 91 81 75 76 74 69 67 62 58 61 62 69 69 69 69 68 68 68
98 98 98 98 98 96 97 97 97 96 96 93 95 92 89 85 80 73 73 74 72 70 67 64 56 58 60 68 70 71 71 70 70
96 98 97 92 97 95 96 97 98 98 95 95 88 88 88 82 77 72 68 70 77 74 69 64 62 61 57 60 67 68 70 72 73
95 94 89 86 96 95 93 91 92 92 88 85 82 82 78 76 74 69 65 62 59 62 67 67 64 66 65 58 63 66 67 68 71
93 87 84 86 95 95 88 83 90 79 78 84 80 78 78 74 67 69 68 64 61 58 63 70 70 71 69 62 61 65 66 66 66
89 86 84 85 93 89 94 91 80 80 81 76 73 71 71 78 77 72 68 68 68 64 60 60 64 74 70 68 67 69 68 67 66
88 88 87 88 91 85 83 87 89 87 90 90 87 83 80 79 77 76 76 73 72 71 69 66 65 63 71 73 71 71 72 72 71
81 93 95 95 97 95 95 93 89 86 84 94 93 96 88 89 80 79 80 79 74 76 74 71 69 67 66 67 72 74 70 69 69
61 66 72 79 90 93 95 96 94 94 85 84 95 95 89 87 79 84 84 81 80 80 78 75 74 72 69 71 72 76 75 70 69
61 63 64 69 73 73 76 66 89 90 92 88 83 91 95 97 94 78 87 87 78 77 78 78 76 73 74 74 74 75 78 74 72
59 59 64 65 67 74 81 78 79 85 88 88 92 90 90 90 91 90 79 70 70 79 76 74 73 72 71 74 75 78 79 74 74

GFSFLT1_sfc_rhum_003.txt.gz
RH
60 64 62 59 62 62 62 62 66 67 64 65 61 64 65 73 55 57 63 62 63 62 59 61 66 68 67 64 62 57 57 55 57
64 68 64 61 62 63 63 64 63 63 66 66 63 61 70 57 54 53 62 64 74 64 57 60 61 64 62 62 61 58 57 55 56
69 69 66 64 62 62 64 66 67 66 65 64 65 66 70 62 57 52 54 70 75 62 60 60 60 59 60 58 59 59 56 56 57
68 69 69 68 67 66 62 74 72 71 68 67 67 73 77 60 62 58 47 63 72 66 65 61 61 61 60 60 58 60 60 57 57
77 80 77 73 71 69 63 68 74 70 70 69 72 76 80 56 65 64 60 66 62 68 66 65 60 61 62 62 61 59 61 60 59
72 82 85 82 76 72 69 67 69 73 78 77 77 80 49 54 57 61 74 79 68 62 66 65 65 62 62 62 63 62 60 61 61
72 82 88 83 82 83 77 73 76 77 61 62 72 57 56 54 56 57 78 80 75 67 63 64 65 65 66 64 62 63 63 61 61
74 76 74 74 83 69 69 67 63 65 64 64 61 62 62 56 56 59 77 76 72 70 66 63 64 64 66 69 64 63 65 64 64
76 72 73 76 71 73 72 67 65 66 66 65 64 63 63 58 56 58 76 75 69 63 64 65 61 61 65 67 71 71 69 69 70
73 71 72 72 72 72 70 69 65 64 63 64 64 63 60 58 57 57 76 78 76 69 61 59 61 59 59 65 72 74 74 72 70
76 73 71 71 69 67 68 66 66 65 64 67 64 64 60 58 59 57 58 76 77 74 70 64 60 61 60 59 67 70 74 75 74
75 73 72 68 68 69 68 68 69 71 66 67 64 62 60 60 59 58 58 58 76 77 74 70 67 64 62 61 64 66 69 73 75
72 72 69 65 67 69 69 68 69 68 68 68 65 61 61 60 58 58 56 57 54 64 74 73 70 68 65 62 62 66 66 67 70
69 68 68 65 69 69 71 70 70 72 69 68 65 64 64 61 58 57 57 58 58 54 63 74 76 76 74 66 64 67 68 68 68
72 70 69 68 71 70 71 74 73 77 77 76 75 70 66 64 63 61 56 56 59 59 59 57 57 76 73 71 69 71 72 71 70
51 51 49 52 57 59 60 67 70 68 70 91 84 74 66 63 63 61 60 61 61 60 60 60 57 55 74 74 73 72 72 75 75
42 48 48 49 51 50 53 56 58 55 55 79 83 84 63 53 68 62 66 61 64 65 61 59 59 60 58 64 75 77 73 72 72
45 47 46 48 51 54 56 57 60 64 55 57 68 78 74 78 52 59 60 66 65 64 65 70 65 64 61 67 69 79 79 73 71
41 44 46 47 48 52 54 50 60 63 66 61 47 63 70 77 75 45 53 50 58 54 55 60 61 64 67 70 75 76 79 77 77
39 40 43 44 46 51 56 56 60 64 67 67 69 68 70 65 79 81 61 55 49 50 50 51 51 55 60 64 70 80 80 80 79

GFSFLT1_sfc_rhum_006.txt.gz
RH
60 62 61 59 62 62 62 62 62 65 66 66 66 59 68 68 47 42 44 52 54 59 60 60 61 65 70 66 65 64 60 58 57
63 68 65 61 61 63 62 63 64 64 64 64 63 63 69 56 51 44 41 45 56 66 63 60 61 62 63 64 63 62 60 58 57
70 69 67 64 63 62 57 67 69 69 68 67 65 67 75 58 55 46 44 52 61 67 65 61 60 61 61 61 62 61 62 59 58
72 70 67 68 68 67 66 65 68 70 69 69 69 74 77 54 43 42 44 59 59 65 64 64 64 62 63 62 62 61 61 62 59
71 75 72 73 73 72 68 68 64 67 72 70 73 78 80 46 45 42 42 61 66 63 62 65 64 63 61 63 63 63 61 62 62
53 72 80 79 75 74 72 71 70 77 81 79 80 82 46 37 36 36 57 61 72 69 65 64 65 65 64 68 65 64 64 62 63
58 73 84 82 81 82 79 76 76 79 47 44 72 49 42 41 40 37 62 59 67 66 67 66 64 66 65 68 68 66 64 65 64
47 50 52 52 72 52 53 51 47 46 46 46 44 45 46 44 42 46 66 62 68 66 62 65 66 64 65 65 66 71 72 70 70
48 48 50 51 48 49 50 49 48 49 48 46 45 45 46 45 44 47 71 67 70 70 67 62 62 65 65 64 67 72 73 74 72
51 51 50 51 51 50 50 50 49 49 48 48 47 47 46 45 44 45 70 75 71 74 71 68 64 60 62 63 67 71 73 75 75
56 55 53 52 51 51 51 51 52 51 50 50 49 49 47 46 47 46 48 76 76 74 77 73 69 67 62 59 66 68 71 74 77
57 57 56 53 52 53 53 53 53 53 51 52 50 49 47 47 47 47 48 50 76 78 75 77 73 70 69 66 65 68 70 70 73
58 58 57 56 56 55 54 54 54 53 53 53 53 54 52 49 48 48 46 47 46 61 77 75 75 74 72 70 68 71 70 71 70
57 56 52 47 50 49 50 50 52 57 55 57 53 51 53 51 48 48 49 48 50 48 60 78 79 78 75 74 71 72 73 72 72
40 37 35 35 37 36 36 38 37 39 40 39 40 45 42 43 44 44 43 46 50 49 51 51 52 80 76 75 74 74 75 76 75
34 33 32 33 34 35 34 35 38 35 34 38 38 36 33 34 31 52 39 37 40 44 45 51 56 54 74 78 73 73 75 75 78
31 34 34 35 36 36 38 40 42 37 35 41 44 41 36 28 34 34 30 30 31 40 50 51 52 55 58 65 77 76 73 75 75
30 32 30 31 33 35 36 36 40 41 35 37 39 47 48 48 38 36 32 33 33 32 36 38 37 38 42 58 66 78 79 75 75
24 26 27 27 28 31 32 28 34 38 39 36 31 37 39 52 55 36 37 32 35 35 35 35 35 36 37 49 68 78 79 76 74
22 22 24 24 24 27 29 29 32 34 33 34 40 40 40 40 50 56 40 34 29 28 30 32 34 36 41 45 60 73 74 74 76

GFSFLT1_sfc_rhum_009.txt.gz
RH
60 62 63 61 62 63 62 62 62 61 63 64 64 64 65 69 50 47 43 43 51 54 59 60 60 61 61 69 67 64 63 62 58
66 67 67 62 61 61 59 60 65 66 65 65 64 63 73 54 50 52 48 44 49 54 61 62 61 62 61 60 63 62 62 63 58
69 70 68 63 63 63 62 63 64 69 71 70 68 69 77 57 48 52 50 57 49 55 61 62 62 60 62 60 61 61 61 62 61
71 72 66 67 68 70 68 66 65 65 67 70 70 76 80 60 48 44 44 60 54 55 59 63 62 62 64 65 62 62 62 62 62
68 70 72 71 72 70 70 69 68 68 69 71 77 80 82 58 52 46 44 61 55 59 61 62 63 63 64 65 66 63 63 63 63
51 68 76 75 75 73 74 73 73 77 81 81 79 83 56 47 40 36 54 57 54 60 66 66 64 64 65 70 71 70 65 64 64
47 66 79 79 81 81 78 76 79 81 57 48 76 60 48 43 43 42 61 55 53 58 63 66 66 66 65 67 69 69 70 69 68
42 44 47 52 73 61 55 56 58 48 48 48 44 44 44 44 45 48 68 62 56 60 64 66 64 64 67 66 65 71 72 74 75
44 44 47 49 48 49 52 50 48 48 47 45 44 44 46 45 45 48 70 72 61 62 66 69 69 65 63 66 67 71 73 74 75
48 48 48 49 49 51 50 50 48 47 46 45 45 44 44 44 44 46 69 78 74 66 66 69 72 70 68 64 68 72 73 74 75
54 54 52 52 52 52 54 55 55 52 48 50 47 45 43 43 44 45 48 74 80 75 70 70 72 75 72 69 71 70 72 73 74
55 55 54 61 59 56 54 49 47 47 45 44 43 44 44 46 44 45 47 51 72 82 72 70 70 72 75 74 72 74 72 71 72
55 58 61 49 46 46 45 43 42 42 41 41 42 42 42 40 41 44 44 48 48 59 80 77 71 70 70 72 73 74 75 76 73
43 38 36 32 36 33 34 33 34 35 36 34 33 33 37 38 33 36 41 44 50 50 62 74 82 81 74 70 70 72 76 78 78
33 32 31 30 33 34 35 35 36 37 36 30 32 36 34 33 34 36 34 33 34 34 36 44 52 80 80 74 71 70 70 74 79
32 32 31 34 35 34 33 34 38 38 35 38 40 38 33 29 33 31 31 34 33 32 36 41 43 50 70 72 73 72 73 72 77
28 31 30 30 33 32 33 35 37 35 33 38 42 43 34 31 32 32 32 32 35 32 34 37 37 39 41 49 62 69 65 64 62
24 25 24 26 30 33 34 33 37 40 35 34 32 42 43 41 37 34 31 29 29 31 30 30 31 33 33 40 44 60 68 67 67
20 20 23 23 25 28 31 24 33 38 39 35 24 30 32 45 45 32 34 28 24 27 29 26 26 28 36 46 51 66 70 65 66
20 19 22 22 24 26 28 31 31 35 32 33 36 32 36 33 37 39 34 28 26 27 27 30 31 34 37 42 49 60 59 58 60

GFSFLT1_sfc_rhum_012.txt.gz
RH
61 61 64 65 64 62 60 60 62 63 63 62 59 60 63 74 70 66 65 56 49 52 58 61 60 60 59 62 66 67 64 62 62
67 67 67 66 64 61 57 55 61 66 69 67 67 66 72 77 72 69 66 65 48 49 55 60 61 61 61 61 60 61 63 61 62
73 70 70 64 65 64 63 62 63 64 68 70 70 74 78 73 75 66 68 67 56 52 53 59 62 62 61 61 61 61 62 62 62
72 75 70 68 68 68 72 69 66 64 66 67 74 79 82 90 79 61 64 67 56 55 57 58 61 63 63 62 65 65 63 63 63
76 79 77 72 72 71 69 69 70 70 70 73 80 83 85 93 78 67 62 63 54 54 57 60 61 62 63 66 69 68 68 64 64
71 76 80 75 72 73 73 73 74 80 83 83 81 83 87 79 67 63 64 63 50 51 56 60 64 64 64 65 70 72 69 69 68
58 74 75 74 79 81 76 77 81 85 83 75 77 88 80 73 65 63 67 61 52 52 58 62 63 67 66 66 66 66 72 72 74
69 76 76 86 85 87 78 86 86 86 78 69 67 72 73 66 65 63 69 68 57 57 62 66 64 67 68 66 66 68 72 74 75
66 68 70 72 73 78 74 76 66 64 61 60 60 59 64 65 61 63 71 72 66 60 63 67 68 68 69 71 69 72 74 74 74
73 74 73 65 64 64 66 64 63 60 58 56 56 53 54 54 56 55 71 77 78 71 64 64 66 67 66 72 76 76 73 74 75
77 74 68 69 69 67 66 67 65 62 58 53 59 62 61 61 60 59 62 71 77 78 68 64 65 67 68 66 70 77 78 76 74
72 71 72 68 65 63 65 60 61 62 56 61 59 59 60 62 62 59 60 62 70 76 72 68 64 65 64 66 66 70 75 77 80
57 56 52 56 54 53 51 52 53 54 52 52 47 49 38 38 52 43 48 50 39 49 61 69 66 65 64 62 63 65 72 74 76
51 51 49 48 54 54 52 53 58 57 54 43 40 43 52 40 36 41 32 32 35 39 53 63 66 66 64 58 62 65 69 73 76
50 50 48 49 54 54 49 48 48 54 55 32 42 40 38 42 48 37 27 35 39 36 40 39 50 59 56 52 51 52 57 63 69
44 49 45 46 49 47 40 46 48 52 50 56 42 48 42 38 32 28 37 36 33 32 32 42 31 34 50 51 47 46 45 47 55
30 38 41 39 48 44 44 46 54 52 51 54 51 56 43 39 34 38 36 37 33 28 32 24 23 32 31 37 51 53 53 54 59
31 33 35 37 44 48 45 46 47 59 53 46 48 60 60 42 44 37 42 26 31 35 26 24 28 26 33 41 45 52 59 55 59
28 30 33 36 42 41 43 35 46 52 56 53 34 45 46 49 51 47 32 38 26 29 33 30 34 30 33 45 53 58 50 51 53
29 30 32 34 41 40 39 41 43 51 51 52 53 46 50 41 44 50 41 34 32 37 32 41 35 31 31 29 39 52 48 51 54

GFSFLT1_sfc_rhum_015.txt.gz
RH
70 62 66 67 66 62 61 61 62 64 65 65 63 61 61 74 80 76 70 68 58 48 58 61 62 61 60 60 64 69 69 66 63
68 68 68 68 67 64 59 56 60 64 68 71 69 69 75 81 86 78 72 69 62 55 52 56 60 62 63 62 62 62 63 64 62
70 70 69 67 64 64 65 65 65 63 66 68 70 76 81 79 87 80 76 69 62 60 55 54 58 62 63 63 63 63 63 63 63
68 75 72 68 66 68 71 71 68 68 67 67 73 80 84 91 89 76 76 70 62 58 58 58 59 60 62 65 65 64 64 65 64
79 83 80 71 72 73 71 68 70 72 73 74 80 84 87 94 93 84 78 71 64 58 56 57 59 62 62 62 64 66 66 64 69
79 84 80 80 73 71 71 72 74 81 86 86 86 86 90 94 84 78 74 70 65 59 60 62 57 61 65 66 66 65 66 68 68
69 79 82 77 76 79 76 77 83 87 95 92 85 83 85 88 79 74 73 68 58 59 64 64 65 61 65 68 69 68 67 66 72
72 76 80 80 84 86 82 84 91 92 86 80 75 68 76 78 72 66 74 69 61 61 66 67 69 69 68 68 70 74 71 71 74
75 78 81 84 82 75 75 73 67 68 69 68 64 62 65 67 65 68 78 77 65 62 65 66 68 70 70 69 72 76 76 77 76
82 83 82 71 75 70 69 68 66 73 71 65 65 66 66 64 65 71 76 74 69 63 60 61 64 65 66 67 71 74 74 73 78
83 76 74 67 64 53 56 61 64 60 57 47 53 59 57 55 56 56 66 72 71 59 52 57 60 63 63 65 67 70 72 73 74
68 49 48 52 56 51 51 51 56 54 48 53 52 48 47 48 54 55 56 57 56 58 49 50 50 52 56 59 61 66 70 73 73
45 46 54 58 58 56 55 60 57 59 60 59 48 49 50 51 44 47 35 38 41 49 51 46 52 52 50 51 52 53 57 64 62
50 54 54 56 59 55 51 54 56 58 56 40 46 39 48 48 41 41 30 39 48 41 48 54 51 44 43 45 46 47 48 47 49
50 50 46 51 54 51 48 47 49 56 55 39 39 40 50 52 45 32 32 47 35 44 32 53 33 45 40 45 45 44 45 45 49
41 47 43 48 50 47 43 48 52 54 55 60 40 56 48 42 27 30 38 36 38 26 40 27 24 26 42 44 47 49 44 51 52
32 40 41 42 48 44 46 48 54 59 56 57 62 58 48 38 30 40 27 42 28 36 24 27 28 36 44 44 41 45 49 55 56
33 35 38 43 49 49 46 48 49 62 59 54 50 59 64 43 50 29 43 25 35 31 38 32 30 38 38 39 41 46 46 49 54
32 33 36 40 46 42 44 39 48 53 56 58 43 50 54 62 55 49 32 40 30 34 36 34 40 33 38 37 41 44 46 51 54
32 33 35 36 42 40 40 41 43 50 52 54 58 50 55 52 54 49 49 37 36 36 35 46 35 36 31 37 40 42 48 53 55

GFSFLT1_sfc_rhum_018.txt.gz
RH
60 64 67 67 66 62 61 62 62 64 67 68 67 67 67 73 88 84 77 73 65 62 52 63 62 64 62 62 64 68 73 71 69
71 70 68 68 66 64 60 58 61 64 66 68 69 72 77 86 91 88 82 78 68 61 60 54 60 61 62 63 63 63 63 64 63
71 70 69 68 65 65 66 66 68 67 65 66 68 75 83 86 92 92 88 78 65 62 61 60 56 57 60 63 62 64 62 63 64
71 74 72 69 67 69 70 72 69 68 70 70 72 81 85 93 96 87 87 77 69 62 60 60 59 60 61 61 63 63 66 62 67
80 83 82 72 72 73 74 70 69 71 74 76 82 85 87 94 96 94 89 78 72 67 63 59 58 59 62 65 66 65 64 63 65
82 89 85 83 77 74 71 72 75 83 86 87 87 88 98 94 94 90 81 76 71 67 65 66 62 60 66 69 68 69 69 67 66
74 84 86 82 82 81 76 77 84 88 97 98 87 83 80 82 84 79 77 74 71 67 68 68 69 68 68 70 67 69 72 74 72
87 88 86 89 83 85 84 83 85 83 85 88 86 83 79 90 86 77 77 68 60 57 58 68 70 68 69 68 68 72 71 74 76
82 84 84 87 80 87 78 75 62 61 66 69 66 69 74 76 76 78 72 66 60 58 58 61 65 69 67 66 69 73 75 77 76
88 89 87 73 68 58 47 50 55 57 55 51 56 59 57 56 56 67 73 60 49 51 52 54 56 57 59 59 62 67 70 70 71
84 61 53 48 47 46 50 58 58 58 56 52 51 49 51 56 52 59 59 54 52 46 49 51 53 58 56 57 56 57 58 60 62
45 48 51 51 54 54 55 54 54 55 48 49 45 46 49 52 53 47 39 47 55 51 47 46 51 48 49 50 51 52 53 54 53
45 50 60 58 55 54 53 55 52 54 55 51 48 46 47 50 46 40 36 45 50 48 43 48 43 43 42 45 48 49 48 48 50
48 52 55 54 52 52 49 48 56 54 53 46 49 40 49 57 34 33 34 50 45 44 41 42 37 39 41 45 46 48 49 49 47
48 46 50 49 49 49 46 46 51 56 58 44 40 43 53 48 34 36 37 46 42 41 42 38 32 42 44 43 50 50 49 46 47
42 46 46 50 47 48 43 50 53 56 61 57 53 56 52 37 25 39 36 42 30 37 32 32 32 38 42 49 49 49 47 49 48
35 41 45 46 47 44 46 50 53 60 62 58 67 60 55 43 27 43 32 36 29 42 28 36 34 37 48 48 45 47 46 48 52
36 38 42 46 48 48 48 50 50 58 58 54 49 55 62 46 50 33 42 29 42 39 38 38 36 37 44 48 45 45 47 48 50
35 37 38 41 45 42 44 41 48 51 53 58 44 53 53 57 58 53 35 43 30 41 46 43 42 39 41 45 46 45 45 51 56
34 34 36 38 44 42 40 42 42 50 51 54 59 56 57 56 68 52 47 33 35 36 35 49 38 37 44 52 45 45 50 55 58

GFSFLT1_sfc_rhum_021.txt.gz
RH
59 64 66 67 65 63 61 62 61 63 66 68 69 68 69 75 88 90 85 81 70 62 62 58 63 64 65 63 62 65 70 73 72
64 69 69 68 66 65 61 60 62 63 65 66 65 66 80 89 92 93 91 86 71 62 62 62 56 65 64 63 61 62 60 62 63
71 71 70 69 67 67 67 67 68 69 68 67 67 75 82 89 94 95 96 87 75 65 62 62 64 59 58 59 61 60 63 63 64
73 73 72 71 69 68 70 72 70 67 69 72 75 81 85 94 97 91 95 85 76 69 63 63 63 62 62 63 63 63 63 62 63
79 83 82 75 72 72 73 73 70 72 75 77 84 87 89 95 95 97 95 81 75 72 69 68 65 61 64 68 67 68 68 66 65
84 91 87 84 77 75 74 73 76 82 86 87 87 88 96 93 97 96 85 78 74 72 71 72 69 67 68 68 71 68 70 70 72
78 86 89 82 83 85 78 78 80 84 95 97 90 94 92 91 94 91 73 67 62 60 60 63 64 66 68 70 70 70 70 71 73
90 91 89 93 85 84 86 82 75 66 78 74 69 71 70 78 80 70 68 58 55 55 55 59 63 66 68 67 68 71 73 74 77
89 89 89 93 79 74 63 54 48 50 52 56 56 55 58 61 64 70 64 54 53 53 55 58 58 59 61 61 66 66 67 69 72
95 84 64 54 48 48 49 49 55 53 51 51 48 50 53 54 57 59 61 55 49 50 54 51 58 57 56 56 56 58 59 60 62
61 50 49 48 47 47 54 55 56 53 50 42 44 46 47 57 53 42 49 54 52 49 48 52 50 51 50 49 51 53 54 54 53
49 51 51 49 52 50 47 48 51 47 44 44 45 43 47 57 39 37 42 58 51 45 50 47 46 46 44 47 49 50 51 52 54
47 51 57 51 50 50 47 54 51 48 51 50 49 45 45 55 33 34 42 53 47 46 43 41 42 43 45 47 48 50 50 52 50
43 54 54 49 49 50 46 48 58 53 49 43 49 44 48 52 29 36 39 48 44 42 40 41 41 42 45 46 50 51 52 51 50
47 51 49 46 48 48 44 47 51 60 59 43 41 48 56 42 36 40 33 44 35 41 39 42 42 42 43 46 50 51 50 49 49
43 50 48 48 48 47 43 49 53 56 62 56 54 57 53 41 33 46 38 40 32 43 41 34 42 45 43 48 46 48 50 50 50
37 46 47 45 45 45 46 50 51 56 62 60 68 57 49 45 26 42 40 38 39 45 29 40 41 45 50 53 44 47 50 51 52
39 41 44 45 48 49 49 50 48 53 53 57 43 45 56 58 49 33 46 31 46 41 36 43 39 42 53 45 53 48 47 50 55
38 39 40 43 46 44 44 42 49 51 53 59 42 54 56 56 58 52 34 45 32 41 52 47 44 48 48 47 50 47 46 53 57
35 36 37 40 46 43 41 42 42 51 51 55 59 58 57 59 68 47 53 36 32 32 37 47 52 43 42 59 55 46 51 55 58

GFSFLT1_sfc_rhum_024.txt.gz
RH
61 61 65 67 64 62 61 62 61 62 65 67 67 67 68 76 89 91 89 87 72 61 62 62 62 63 63 65 63 61 64 70 71
63 67 69 69 66 64 62 61 63 64 66 66 67 69 80 90 94 94 94 92 77 67 60 62 62 58 63 69 56 58 60 60 58
69 69 70 69 67 66 65 67 68 69 69 69 70 75 82 89 94 95 96 89 80 72 65 62 63 65 60 59 60 61 61 62 64
74 74 71 70 69 68 69 71 71 69 70 73 77 84 86 94 97 93 97 88 79 74 71 67 65 65 64 67 65 65 65 65 64
77 83 80 74 72 72 73 73 72 74 76 79 84 86 87 94 95 97 97 81 77 74 72 72 71 70 67 70 71 69 69 70 68
86 91 89 84 79 76 76 76 78 82 87 87 85 87 97 95 94 97 73 66 64 64 66 63 64 67 72 76 72 70 69 69 72
79 87 86 81 83 81 75 78 76 77 87 83 73 77 73 78 82 80 64 57 56 56 57 61 64 65 68 70 70 72 74 72 72
92 94 91 91 87 88 83 57 49 47 58 61 60 56 60 62 67 63 58 54 54 54 57 59 59 64 64 67 67 66 68 70 71
93 93 94 92 76 50 51 49 47 51 50 51 47 47 53 56 61 57 62 54 51 54 55 54 62 59 58 59 59 60 61 62 62
96 71 52 49 48 48 46 52 49 46 42 42 46 37 49 61 48 49 62 53 52 50 53 56 55 53 50 50 54 55 56 56 56
55 50 49 48 45 49 50 51 47 45 43 39 47 37 60 50 36 43 58 50 48 50 50 50 49 49 49 51 51 51 53 53 56
52 50 47 46 49 43 45 49 43 43 40 39 46 40 54 42 35 41 47 57 49 49 48 48 47 48 47 50 49 50 52 53 54
47 47 46 47 48 46 47 55 47 45 47 43 47 44 48 44 31 41 46 54 41 47 44 45 43 45 45 47 48 51 52 53 52
43 43 46 47 46 48 44 49 58 51 47 37 45 46 49 43 28 42 38 42 38 46 41 42 43 43 44 47 50 52 51 52 52
45 47 46 45 46 45 42 44 50 62 60 41 37 54 62 43 38 47 32 41 35 46 42 45 47 43 43 46 49 49 50 51 53
47 50 46 47 46 45 42 47 48 56 62 50 51 55 54 51 43 43 40 41 37 44 44 30 43 48 44 47 47 49 51 52 53
41 45 46 42 45 44 46 46 47 51 63 52 66 52 43 43 29 45 40 41 42 45 29 35 40 48 52 56 45 47 52 53 54
42 43 44 44 49 51 50 48 46 49 52 60 42 42 47 62 50 41 52 37 44 44 40 39 44 45 50 54 52 50 50 52 55
40 40 42 44 48 44 45 42 50 49 53 54 43 52 59 55 57 49 37 46 33 41 47 40 45 46 52 51 49 50 49 53 57
38 38 39 42 48 43 41 42 43 52 50 54 57 58 58 61 70 50 53 38 35 36 39 51 42 40 49 57 59 50 51 56 58

GFSFLT1_sfc_rhum_027.txt.gz
RH
59 61 65 65 64 62 61 62 61 64 66 66 66 64 68 74 66 66 67 66 73 67 59 62 61 67 64 62 64 63 61 63 71
63 66 68 67 65 63 62 64 65 67 68 66 66 67 79 63 65 66 68 68 78 72 66 62 62 62 58 62 68 56 57 60 62
67 70 70 68 66 66 66 68 69 69 68 69 71 76 83 67 64 67 68 77 79 74 69 67 64 64 66 61 60 61 61 62 62
73 75 72 69 68 68 68 72 72 71 72 75 78 83 85 64 65 68 64 80 80 74 70 72 70 68 66 66 68 68 66 66 67
80 82 79 72 72 72 74 74 76 77 80 82 83 85 83 64 67 63 60 72 69 69 69 68 65 71 73 75 72 70 68 68 70
66 87 89 81 77 76 76 75 78 82 79 72 71 69 52 50 49 50 66 59 58 60 60 62 64 64 67 71 71 71 73 70 70
65 78 82 77 80 77 77 66 56 54 46 40 47 37 36 38 44 45 58 54 55 56 60 60 60 65 68 70 70 70 72 74 74
60 61 60 64 77 63 50 46 43 40 38 35 31 33 33 36 33 52 61 53 51 53 55 59 62 62 62 62 62 63 64 64 64
63 61 68 55 47 48 49 41 33 31 28 29 24 23 32 29 29 52 57 56 56 52 56 58 57 55 53 54 58 59 59 59 59
69 53 48 48 46 42 37 31 26 24 23 27 24 25 35 25 28 37 58 51 50 55 54 53 53 53 53 54 54 53 55 56 57
55 50 48 45 39 37 30 25 25 23 21 26 27 25 31 20 28 27 38 54 52 51 49 51 50 51 50 52 52 51 54 54 56
52 48 46 41 35 27 30 28 25 23 21 21 27 23 34 21 24 29 31 29 46 47 48 47 46 46 47 49 49 49 51 53 54
47 45 42 37 30 29 29 31 29 25 25 22 26 25 32 22 24 26 29 28 26 37 45 43 44 44 46 48 49 49 50 52 53
42 36 32 28 30 30 26 30 32 27 26 23 23 28 31 25 23 24 29 29 29 29 35 40 40 42 44 47 50 50 50 52 53
40 34 30 28 30 27 28 26 33 32 33 24 21 35 40 29 27 25 21 28 28 30 31 26 24 39 44 46 49 50 50 51 52
37 33 31 30 30 29 25 30 30 34 33 27 27 29 30 34 32 24 26 29 28 29 27 22 22 23 41 43 47 49 52 52 53
32 31 31 31 32 31 29 30 31 33 38 29 35 29 21 25 19 26 27 26 26 24 23 22 24 26 27 36 47 48 51 55 56
31 32 31 33 34 35 35 34 34 32 37 36 21 27 27 33 27 24 27 24 26 24 26 25 24 26 28 36 40 48 51 54 57
31 32 31 33 34 34 33 31 35 33 35 35 28 30 30 31 29 28 26 28 24 28 28 25 26 28 30 39 46 50 53 56 59
32 31 33 32 33 33 31 33 33 35 30 34 35 34 33 34 38 32 30 28 27 29 28 28 28 27 31 35 40 50 54 59 61

GFSFLT1_sfc_rhum_030.txt.gz
RH
59 64 66 65 64 62 64 62 64 66 66 66 66 68 72 77 49 51 53 53 72 71 65 61 62 62 68 66 62 64 63 63 66
63 67 69 66 65 64 64 66 66 68 69 68 67 67 74 53 50 51 53 54 74 72 67 66 63 63 63 61 62 66 60 58 60
68 70 70 68 66 66 66 69 70 69 68 70 72 75 82 56 49 52 53 69 77 76 72 68 69 66 66 67 65 62 62 62 63
71 74 72 70 68 68 70 72 72 72 74 77 81 82 84 53 47 52 48 80 76 74 73 72 71 73 72 69 68 69 70 68 68
82 80 77 72 73 74 76 75 77 80 80 78 78 76 74 44 48 44 47 65 62 64 63 64 65 66 68 71 72 72 72 70 70
56 87 86 78 76 77 73 76 77 74 69 63 56 60 38 37 38 39 61 59 58 58 62 61 62 67 72 72 72 73 74 74 75
47 71 80 74 76 75 68 58 51 49 34 33 46 31 31 32 35 39 64 58 54 57 56 68 66 64 65 65 66 66 68 68 67
44 47 46 49 71 49 43 39 32 35 32 31 27 26 27 27 26 48 57 56 57 55 63 64 60 58 57 58 62 61 62 62 62
44 43 50 48 42 41 42 32 29 27 23 23 18 18 22 19 22 42 58 52 50 55 59 56 56 56 55 57 58 58 58 60 60
47 48 42 42 41 37 31 27 22 20 17 18 16 16 20 18 20 26 58 52 55 53 52 54 53 53 52 54 54 54 56 57 57
52 48 45 40 33 31 24 21 18 16 15 16 17 15 20 17 22 21 33 55 51 51 50 49 48 49 49 50 50 51 52 53 55
50 46 42 35 28 23 21 19 17 17 15 16 17 17 19 18 18 21 21 25 49 47 47 45 44 45 47 47 48 49 50 52 53
47 45 38 27 25 21 20 21 21 19 18 17 17 17 18 19 18 21 20 22 19 32 42 42 42 44 45 47 48 49 50 51 52
40 35 29 22 22 22 19 22 20 20 20 17 16 19 22 23 17 19 22 24 24 22 28 33 32 36 44 47 48 50 50 51 52
39 28 24 21 23 21 21 21 22 23 22 17 17 24 26 23 22 21 16 21 24 23 26 24 21 29 36 43 46 51 52 52 54
36 25 23 23 23 22 19 21 24 26 23 22 20 21 21 22 25 23 18 22 21 21 20 18 18 18 32 36 43 51 52 54 54
35 25 24 25 25 25 23 24 25 25 25 22 27 23 18 18 21 20 19 16 19 19 18 20 21 22 22 29 43 46 52 56 58
26 30 24 26 26 28 27 27 26 26 27 25 17 23 24 22 18 20 18 19 18 19 22 22 21 22 22 29 32 42 52 57 59
29 26 24 26 26 27 27 23 25 24 27 27 19 21 20 24 24 20 19 18 19 22 23 22 22 23 23 32 38 43 50 58 61
25 24 25 25 24 25 25 26 25 24 21 26 26 24 25 22 27 28 22 20 20 21 22 23 22 21 24 27 33 44 54 61 63

GFSFLT1_sfc_rhum_033.txt.gz
RH
63 66 64 65 64 64 64 65 67 67 67 65 65 67 71 76 49 48 53 52 69 70 66 63 60 63 63 68 66 63 64 63 64
64 69 67 66 65 65 67 68 68 69 69 68 68 69 74 59 46 47 49 61 70 73 69 67 68 64 64 64 63 62 65 65 59
66 71 70 67 67 67 67 71 71 70 69 71 73 76 82 58 58 57 57 73 71 72 72 71 71 71 70 67 67 68 64 64 64
72 75 72 69 68 70 72 74 75 74 77 78 77 78 81 60 47 46 50 73 64 67 66 67 66 68 68 73 74 73 74 73 70
81 82 76 72 73 75 75 75 77 78 77 73 70 70 75 47 44 42 54 64 60 61 65 64 65 71 72 73 73 74 74 75 76
66 84 87 79 76 75 74 74 76 71 68 57 54 63 37 36 38 44 67 59 57 62 60 68 69 67 68 68 69 70 70 71 71
49 75 84 76 76 75 65 54 52 61 36 38 50 34 34 33 35 51 60 54 51 57 63 66 63 61 60 63 64 65 65 66 66
47 55 55 58 74 60 49 42 35 36 35 34 29 26 25 25 26 54 60 57 53 55 64 60 59 58 57 60 61 61 61 63 63
41 42 47 56 45 45 42 35 32 29 25 23 19 19 23 21 23 56 58 52 55 59 57 57 56 56 56 57 57 57 57 59 59
41 43 45 44 42 39 36 32 28 24 18 18 18 16 18 18 20 36 65 58 54 54 54 52 51 50 50 51 52 52 52 54 55
47 46 45 42 39 33 29 26 22 18 17 17 16 16 17 17 21 23 47 55 52 50 49 47 46 45 46 46 48 49 49 52 54
50 46 44 37 31 28 25 20 19 20 18 17 16 18 16 19 18 23 28 41 50 47 43 42 42 44 46 46 47 48 49 51 52
49 48 43 32 29 26 23 23 23 23 22 20 20 20 20 20 18 22 24 27 22 43 38 37 39 38 43 48 48 48 50 51 51
46 42 36 29 26 24 22 24 23 25 27 23 20 23 26 25 19 20 23 26 28 28 37 30 35 30 35 43 48 50 52 53 53
42 36 32 26 27 25 25 25 26 26 27 19 20 29 29 30 28 22 19 21 26 28 33 33 28 30 30 38 42 47 53 54 53
37 33 32 26 26 26 23 25 28 31 28 33 34 31 26 24 26 28 24 24 26 25 26 24 25 24 31 32 36 47 49 53 55
32 31 37 30 29 28 26 28 32 31 29 29 36 35 27 23 25 23 20 20 23 23 22 23 26 29 29 35 37 38 46 56 57
33 32 30 31 32 36 35 34 31 33 32 27 21 33 35 27 26 25 23 21 23 24 26 25 25 26 28 32 34 38 46 53 60
34 42 34 33 31 33 33 27 31 30 33 32 20 23 23 30 30 27 25 22 20 23 25 24 26 26 30 33 36 39 43 52 60
32 39 36 30 30 29 28 31 28 27 23 29 30 25 29 25 32 35 30 24 23 24 24 26 25 25 29 34 35 38 46 55 61

GFSFLT1_sfc_rhum_036.txt.gz
RH
67 64 65 66 66 66 66 68 69 70 70 66 65 66 70 80 67 65 68 76 67 70 66 65 62 61 61 64 68 64 63 65 61
70 68 67 67 68 69 70 71 72 72 71 70 70 72 80 79 68 58 72 76 68 70 67 67 68 69 67 65 65 67 62 63 64
71 71 69 68 69 70 72 74 73 72 72 73 75 80 84 74 64 62 68 73 66 69 69 69 69 69 72 74 71 68 68 68 65
72 74 71 70 71 73 75 76 77 76 77 75 75 79 81 89 60 55 74 72 62 65 67 66 69 73 73 74 74 74 76 76 77
81 82 78 73 75 77 76 76 77 77 74 66 65 72 75 77 60 68 73 64 60 65 64 69 70 70 70 71 72 72 71 72 73
83 84 85 84 78 75 76 75 77 75 72 62 62 64 54 51 64 71 65 59 56 59 71 68 66 63 63 67 67 68 68 68 69
74 89 87 83 80 79 68 60 62 72 62 60 60 46 41 50 64 75 63 61 59 61 66 63 61 60 62 63 63 63 64 65 66
79 92 85 88 86 73 69 58 54 44 44 43 38 32 36 41 67 63 57 51 48 65 61 60 59 58 59 60 59 59 59 61 62
68 76 76 72 70 63 57 57 44 39 31 29 28 25 34 34 66 67 65 57 59 59 57 56 54 54 54 54 54 55 54 56 57
63 64 63 61 60 59 59 47 40 30 26 26 26 24 27 26 45 78 71 59 54 56 53 50 49 47 47 47 49 49 51 51 53
67 66 65 62 59 52 43 36 30 30 27 26 24 26 26 26 33 65 71 57 53 52 47 44 43 44 45 46 47 47 50 51 53
66 65 62 56 51 40 34 29 32 34 29 30 26 26 26 29 28 37 53 57 54 44 39 39 40 41 43 46 49 50 50 51 53
67 66 59 47 43 43 38 38 38 36 36 35 32 30 30 27 27 30 34 43 44 44 38 33 35 37 37 42 48 50 52 54 55
64 60 56 45 43 40 35 39 38 40 40 32 28 36 38 36 24 29 30 35 35 37 39 32 36 34 33 38 44 46 51 55 56
61 58 48 42 44 39 40 38 40 40 40 27 30 39 38 41 35 33 26 32 32 34 34 41 39 34 34 38 40 43 50 52 54
56 50 42 42 41 40 35 40 42 46 43 46 44 43 34 37 40 38 38 34 32 35 36 35 38 37 33 34 37 42 45 50 57
45 44 41 40 37 33 36 41 46 46 44 40 48 48 42 36 31 42 26 28 30 30 26 30 31 37 42 42 36 38 43 50 55
52 49 44 41 45 47 44 42 42 50 46 37 35 44 49 41 38 35 34 28 34 34 32 31 31 33 37 41 41 36 41 48 54
55 56 55 47 48 47 45 41 42 43 48 46 29 34 35 44 46 42 37 35 26 32 38 34 34 33 39 41 40 36 40 46 54
43 43 41 41 49 38 39 40 39 39 41 44 44 37 42 40 47 51 45 38 36 36 36 38 38 34 35 43 41 36 41 48 55

GFSFLT1_sfc_rhum_039.txt.gz
RH
63 65 66 66 66 66 67 69 70 71 69 67 65 66 69 79 73 70 73 80 67 69 65 66 65 61 60 61 65 65 62 66 64
66 67 68 69 70 71 72 72 73 73 72 71 71 72 81 82 70 76 79 75 67 68 63 71 72 72 72 67 64 66 68 62 64
71 68 70 70 71 73 74 74 73 74 74 75 76 79 84 81 69 68 72 75 67 68 68 70 73 72 72 74 76 77 76 74 72
74 72 70 72 73 76 77 77 76 77 75 72 70 76 78 89 66 65 80 73 65 67 65 73 72 70 72 74 73 73 72 74 76
82 82 78 74 77 78 78 77 77 76 72 62 66 66 68 72 74 77 78 64 66 64 72 69 64 64 68 70 68 68 71 72 73
86 86 85 84 80 77 77 76 76 76 73 65 61 62 55 74 73 77 69 56 59 68 68 64 62 64 67 66 66 66 67 68 70
81 88 90 86 83 82 72 68 72 73 67 62 54 37 42 69 76 75 66 62 58 67 65 63 61 62 63 62 61 60 62 63 64
96 98 96 96 90 84 74 63 58 50 49 37 32 33 42 72 73 65 57 49 55 63 61 59 58 57 59 56 57 57 57 58 59
95 96 95 93 90 82 71 62 49 37 29 30 27 27 40 66 68 80 71 61 61 60 57 55 54 52 50 50 50 51 51 51 54
80 85 86 84 82 68 65 52 39 29 27 27 27 26 31 56 71 88 72 61 59 55 52 49 45 46 46 46 47 47 50 51 52
75 77 71 69 64 61 54 39 32 31 29 29 27 27 32 39 69 78 77 60 56 50 45 43 42 42 43 45 48 50 50 52 54
75 71 70 63 58 40 32 32 36 37 32 33 31 29 29 32 50 63 63 64 59 40 37 37 38 40 40 42 47 50 52 54 56
69 67 65 51 49 45 41 41 41 42 40 37 34 35 34 31 36 48 55 57 51 46 37 33 35 36 36 40 44 46 51 55 56
65 63 57 48 47 43 36 42 42 42 40 34 32 40 40 41 29 36 38 40 43 47 40 33 39 33 36 39 44 44 47 52 54
63 60 52 50 46 44 41 40 46 44 42 29 35 44 43 41 36 35 31 38 36 38 37 45 38 33 33 36 40 42 45 48 52
60 57 50 48 40 42 38 45 43 45 46 45 43 50 40 41 41 43 40 37 35 37 40 38 39 38 33 33 37 41 43 46 50
56 49 47 45 45 41 38 39 46 47 46 40 53 46 40 39 35 48 32 32 35 33 29 31 32 38 43 45 36 36 39 45 50
62 48 46 47 46 46 44 45 45 50 46 38 37 45 47 44 42 42 38 32 38 37 37 35 33 36 40 42 41 38 38 43 49
61 56 54 61 59 44 47 43 46 48 48 45 34 37 36 40 35 42 41 38 32 38 40 41 38 36 42 43 46 41 38 42 48
55 54 54 49 53 61 44 44 39 43 44 50 46 40 46 44 49 49 46 41 38 38 44 43 41 39 41 48 47 42 38 44 48

GFSFLT1_sfc_rhum_042.txt.gz
RH
61 63 65 68 67 67 68 68 68 69 68 67 65 66 73 77 79 71 73 82 68 67 56 67 67 66 62 60 66 67 62 62 67
66 67 68 68 68 69 70 72 73 73 72 70 70 74 83 84 85 80 78 78 70 69 70 73 74 74 76 70 63 66 69 66 62
67 69 70 71 72 72 73 73 73 74 74 74 75 77 83 80 73 73 85 76 68 68 70 74 74 76 76 76 76 74 76 78 78
69 70 71 72 74 75 76 75 75 76 73 70 69 73 78 79 75 72 85 75 67 64 74 70 68 70 69 69 68 70 70 73 76
79 79 78 74 77 78 78 76 76 75 68 62 67 73 76 79 78 81 82 70 63 72 70 66 66 64 66 69 68 67 68 70 72
88 88 84 83 80 78 77 76 76 74 66 65 64 65 76 78 80 84 70 60 64 68 66 64 63 64 66 65 63 63 65 66 69
84 90 88 87 85 83 76 75 73 71 69 56 48 46 71 76 79 79 68 57 69 65 64 62 62 62 62 60 60 59 60 62 63
95 98 97 97 92 91 82 71 64 57 51 36 35 43 70 76 74 70 62 49 66 61 60 58 56 56 55 55 54 53 54 56 57
99 99 98 98 96 90 77 69 54 37 33 32 28 39 64 72 78 87 73 67 62 59 56 54 51 48 47 48 49 50 52 52 53
97 98 98 97 96 82 71 57 38 30 28 30 28 32 54 68 87 93 72 67 61 54 51 47 46 46 45 47 49 50 51 53 55
91 94 92 94 90 74 63 41 34 32 31 31 29 32 39 72 85 84 83 66 56 50 44 42 40 41 41 44 48 50 52 55 56
81 85 86 81 72 58 39 35 38 37 34 34 32 31 36 61 72 75 72 74 61 41 39 36 38 38 38 42 45 47 52 55 56
80 80 78 68 54 42 40 42 43 44 41 37 34 37 34 36 61 58 63 64 55 47 37 34 34 34 38 40 45 46 47 52 54
74 74 69 55 52 46 41 45 42 42 41 35 36 42 43 40 37 49 52 51 54 54 41 38 34 31 33 37 41 43 44 49 50
72 69 56 53 50 46 42 41 47 44 42 30 38 47 48 42 40 41 37 44 41 42 40 45 38 31 30 32 35 40 42 45 47
67 63 54 49 42 44 38 44 41 45 47 44 44 50 42 44 44 46 41 40 38 40 43 40 40 39 32 30 33 37 39 42 45
75 58 52 44 46 43 43 46 51 47 45 43 54 43 36 39 37 48 39 39 41 38 32 34 34 39 45 45 38 35 36 40 45
78 57 58 43 45 45 45 47 46 51 47 38 41 50 47 42 39 43 38 34 41 39 39 35 37 39 43 46 48 44 36 40 45
77 64 56 64 58 46 51 46 48 50 48 46 34 36 36 37 32 39 41 37 32 36 41 43 40 40 48 48 49 47 43 42 46
79 65 65 66 61 59 52 56 52 47 47 52 49 42 47 44 45 40 45 43 40 40 43 44 46 46 49 56 54 46 46 48 50

GFSFLT1_sfc_rhum_045.txt.gz
RH
61 66 70 71 70 69 69 68 67 66 68 66 66 71 76 78 86 81 79 86 69 65 58 68 68 73 65 61 66 67 65 63 68
64 66 69 69 69 68 69 69 71 72 71 71 73 78 80 86 86 88 89 85 73 71 73 76 75 76 76 71 72 74 75 70 65
68 68 69 69 70 70 72 73 74 74 74 74 74 76 80 79 84 87 91 78 68 67 74 71 72 72 72 72 74 74 76 79 80
69 71 72 72 71 73 74 74 74 74 71 68 65 75 78 82 82 78 88 75 64 72 69 67 65 68 66 68 67 70 73 73 76
76 79 78 74 76 77 78 76 76 73 64 61 74 80 78 84 82 82 89 67 70 70 68 65 65 63 65 67 66 66 65 66 68
86 88 85 82 80 80 78 77 77 71 71 66 74 73 78 83 85 88 72 64 69 67 65 63 61 62 64 62 62 64 65 66 66
88 91 88 87 86 84 78 77 74 69 66 53 52 74 80 80 81 80 69 60 66 63 63 62 63 62 60 59 59 58 60 60 61
98 98 97 98 94 96 87 77 69 63 44 37 44 70 77 80 76 71 63 64 61 58 59 57 56 55 54 52 51 52 53 53 54
99 99 98 98 98 94 83 73 54 40 34 30 38 58 73 73 90 89 78 70 60 59 55 52 50 49 48 50 51 51 53 55 56
99 99 99 98 98 92 78 63 39 33 32 31 31 44 68 82 89 94 75 73 60 54 50 48 46 44 44 48 51 52 54 55 57
98 99 98 98 97 85 73 53 36 34 32 31 31 38 66 83 88 90 87 70 58 50 45 41 41 40 41 44 47 49 53 56 57
96 98 98 97 96 76 50 38 38 38 34 35 33 35 52 74 80 82 82 77 61 44 39 38 39 38 40 43 45 47 50 53 55
95 95 96 91 82 60 44 44 44 43 40 38 37 38 38 57 71 67 75 68 58 47 37 34 33 35 36 38 41 44 45 47 50
87 90 90 77 61 48 44 46 43 42 43 36 39 45 45 41 54 59 59 58 60 56 39 38 34 31 32 35 37 40 43 44 47
82 85 79 64 55 50 46 44 47 45 43 32 41 50 52 45 49 50 44 50 46 46 46 48 40 36 32 30 34 38 41 42 45
80 77 67 59 48 43 41 44 41 45 47 47 49 53 46 47 45 46 43 43 42 42 43 42 41 40 43 38 35 38 40 40 42
84 77 63 53 52 45 42 45 50 48 50 47 55 48 42 44 39 52 43 40 43 40 34 34 36 41 46 50 45 46 42 40 43
81 73 64 50 47 49 40 48 46 51 48 42 48 56 52 48 42 47 40 36 43 40 39 37 38 39 43 49 52 53 49 47 46
88 80 64 64 65 60 67 62 66 51 47 44 34 38 44 43 36 43 44 40 34 37 40 42 43 44 51 52 55 48 47 48 50
92 79 79 74 74 78 71 73 63 59 59 52 47 40 46 39 43 39 44 45 43 42 43 46 48 46 50 54 54 50 51 54 55

GFSFLT1_sfc_rhum_048.txt.gz
RH
63 68 71 73 73 72 71 70 68 68 68 68 70 75 75 81 85 78 79 88 74 67 70 68 77 74 64 65 66 67 66 63 64
65 70 72 72 70 70 69 68 68 70 70 72 76 75 79 88 89 91 90 89 73 72 74 74 73 76 76 79 77 79 77 78 71
67 70 71 70 69 69 70 72 74 74 75 74 72 77 81 84 91 92 92 77 67 70 72 71 69 70 71 71 72 72 74 77 80
69 70 70 70 70 72 74 74 75 74 70 67 69 78 81 90 88 82 92 74 69 69 67 65 66 66 65 64 65 65 66 70 74
77 80 78 73 74 76 76 76 76 69 62 71 78 81 80 88 85 91 87 73 69 65 65 64 62 66 65 65 66 66 65 68 67
86 89 85 82 80 80 78 78 76 69 74 78 76 74 82 88 91 90 77 70 67 65 65 64 62 63 63 61 62 63 63 64 65
89 91 88 85 85 85 78 79 71 68 60 58 71 80 83 86 82 81 68 68 65 64 63 64 63 61 59 57 56 56 58 58 58
98 98 97 97 95 97 93 81 73 72 45 44 66 78 79 79 76 77 64 66 62 62 59 58 56 54 52 52 53 55 56 56 56
99 99 98 98 98 96 89 75 56 42 33 36 56 73 74 76 96 90 79 69 61 59 54 52 51 50 50 52 53 53 55 56 57
99 98 99 99 98 96 83 67 41 36 33 32 42 66 69 88 93 95 80 74 61 55 51 49 46 44 46 50 52 53 56 58 58
99 99 99 99 98 95 78 57 37 35 33 32 35 56 72 86 87 94 90 71 60 52 47 43 42 41 42 46 47 49 55 55 56
97 98 99 98 98 87 66 42 39 39 35 34 36 42 74 84 86 90 91 78 64 49 41 41 40 38 42 42 44 46 47 49 53
98 98 98 98 98 80 54 45 44 43 39 38 39 39 51 75 79 77 84 68 60 50 40 35 35 37 35 37 40 41 44 44 48
94 97 97 96 93 72 48 48 44 44 43 37 42 47 44 47 61 68 67 62 64 58 42 39 36 32 32 33 35 38 42 41 44
91 96 96 89 84 67 50 45 48 46 44 32 42 52 55 50 64 59 53 58 52 50 52 49 41 42 37 32 33 37 40 40 41
90 91 92 81 75 63 44 47 44 48 48 50 52 54 49 46 48 52 52 48 45 45 45 44 42 40 42 44 40 40 43 41 42
86 88 86 79 72 55 44 45 50 48 53 50 56 50 46 48 44 54 45 46 48 44 38 36 38 44 47 51 46 47 45 45 45
87 88 85 76 66 57 45 50 55 58 52 49 52 58 55 52 46 50 49 42 49 44 40 39 40 42 48 54 55 51 46 46 48
90 90 86 80 76 78 69 70 76 81 71 52 40 41 47 46 42 45 46 42 39 44 44 44 44 46 55 53 52 49 49 51 54
92 91 88 81 76 79 75 74 69 76 72 64 64 48 45 38 42 41 42 47 46 45 43 48 50 48 53 55 57 49 51 53 55

GFSFLT1_sfc_rhum_051.txt.gz
RH
62 72 75 77 76 74 72 71 68 66 70 70 72 74 77 76 55 59 66 68 74 73 71 78 73 67 65 70 67 67 66 65 66
65 71 73 74 73 72 69 67 69 69 70 73 73 75 80 60 62 66 66 65 70 72 71 73 75 76 75 75 75 77 78 75 67
68 73 73 71 70 70 69 72 73 74 75 73 73 78 80 66 65 67 60 71 64 68 70 69 68 70 68 69 69 70 73 77 78
69 71 71 70 70 71 73 74 75 74 71 70 78 81 82 60 63 61 56 76 69 67 65 66 66 66 66 67 66 67 67 68 71
76 79 77 70 73 76 76 76 74 67 65 68 79 82 79 58 64 59 59 70 64 62 64 64 66 66 65 65 66 66 66 67 68
68 81 82 80 81 79 78 79 69 73 83 81 79 72 54 55 60 56 77 67 65 64 65 63 64 64 61 62 62 62 62 63 62
68 78 87 83 84 85 80 79 68 57 47 57 64 50 54 55 57 55 74 66 65 64 65 65 62 59 57 56 57 57 57 57 58
68 70 72 72 85 71 74 67 50 42 34 41 47 51 49 45 48 56 74 65 63 60 60 58 56 53 54 55 55 56 58 58 58
76 70 76 77 75 74 70 54 48 37 30 34 43 46 44 40 51 59 77 67 62 57 54 53 52 51 52 54 54 56 57 59 58
79 76 74 77 78 72 64 50 37 29 24 28 36 40 39 48 52 59 81 74 61 54 52 50 46 46 50 51 52 55 57 57 57
79 81 78 77 77 71 62 47 34 29 25 24 28 38 43 47 53 60 59 73 63 53 48 44 42 42 45 46 49 52 53 54 56
75 76 81 76 75 70 60 41 30 28 25 24 25 35 41 47 50 60 56 54 66 54 44 44 40 41 42 41 44 46 45 46 50
76 78 80 76 76 70 57 41 33 30 28 26 26 28 42 46 48 56 53 47 40 48 43 37 40 37 35 37 39 39 42 43 45
73 77 78 77 78 72 56 42 34 33 32 29 30 29 31 43 44 48 53 45 45 39 44 45 40 34 32 32 34 36 40 40 42
75 76 77 78 80 75 56 44 36 34 33 22 28 35 34 33 42 41 42 41 45 40 43 39 37 41 37 33 34 36 38 42 41
81 79 75 79 79 75 59 44 40 39 34 36 38 38 36 33 35 41 38 40 38 35 36 30 27 26 42 42 40 40 44 45 44
82 80 78 76 76 74 61 46 42 41 39 38 44 41 35 34 33 35 35 34 34 33 32 28 29 32 30 38 46 44 42 44 46
81 78 82 79 73 72 64 53 50 50 43 42 37 49 45 37 36 36 36 34 35 34 32 29 30 30 31 39 47 48 49 49 50
83 80 81 82 81 78 75 60 58 60 60 52 44 41 44 54 38 35 38 33 32 34 33 29 31 32 38 46 49 47 48 49 52
83 82 82 80 82 78 76 69 59 61 60 70 65 55 50 40 51 44 42 36 36 33 35 31 30 34 36 40 46 48 49 52 54

GFSFLT1_sfc_rhum_054.txt.gz
RH
72 76 79 79 79 74 73 70 65 69 70 71 72 73 74 70 48 52 61 58 73 69 73 78 66 64 70 69 68 68 71 63 67
70 71 76 76 74 72 67 67 68 70 71 73 72 75 76 45 49 49 56 60 71 72 71 75 75 74 74 73 76 78 77 72 69
70 69 73 73 72 69 68 68 70 72 74 71 72 78 78 52 47 48 49 69 69 68 68 70 69 68 70 68 70 71 74 75 76
71 74 72 71 70 70 72 74 74 74 70 73 79 81 78 43 45 42 47 76 67 69 66 65 67 67 67 66 68 69 70 72 72
76 79 75 71 71 74 76 76 73 68 66 76 80 82 78 45 49 42 58 68 63 67 64 65 66 66 66 66 66 66 66 66 66
63 73 78 74 79 78 78 76 69 79 84 82 79 77 42 42 42 40 76 66 64 66 64 65 64 62 62 61 62 61 61 61 62
47 68 85 80 82 83 82 73 67 64 42 51 67 39 41 38 40 43 75 66 64 64 65 63 60 57 57 57 57 58 58 58 60
48 50 56 56 80 54 66 61 39 35 33 38 35 37 37 34 37 52 72 67 62 61 60 59 55 54 55 55 57 58 58 59 58
44 43 48 50 50 51 51 47 42 36 32 31 33 35 32 28 31 47 77 68 61 58 55 54 52 52 54 55 56 58 59 59 58
48 47 45 47 47 48 50 47 40 36 29 28 30 28 26 27 29 32 80 74 61 54 54 51 48 49 52 52 54 57 56 57 58
51 51 51 49 48 48 48 45 38 32 27 25 25 24 24 26 30 33 55 75 64 55 50 45 44 45 48 48 50 52 52 53 54
52 51 53 53 51 47 49 46 38 33 26 24 22 24 24 26 28 34 39 54 69 58 46 44 42 43 44 42 45 45 44 44 48
52 53 53 51 55 52 51 48 42 35 29 26 23 22 26 26 27 35 36 38 35 50 49 44 41 40 37 39 39 39 41 42 44
52 51 52 52 57 58 53 49 43 38 32 28 25 23 25 28 27 31 36 37 34 31 49 51 48 37 34 34 34 36 38 40 41
56 52 52 51 59 63 58 50 43 39 35 24 24 27 24 25 29 28 32 32 36 33 32 34 33 41 36 33 34 35 37 42 43
63 58 54 54 57 63 60 54 49 43 35 32 33 30 28 27 25 30 31 33 32 31 32 29 25 28 41 39 37 40 43 43 44
65 67 59 58 60 61 65 59 53 47 36 40 40 43 34 29 27 28 28 29 29 28 28 26 25 25 24 34 43 39 38 42 45
68 71 67 69 63 63 67 64 57 55 42 37 41 50 51 36 32 31 32 28 29 28 28 27 26 25 24 36 43 47 47 46 47
77 77 72 72 76 70 68 66 60 58 52 41 34 34 35 42 47 37 34 31 29 33 33 27 27 27 27 40 48 46 45 46 49
85 77 80 79 76 75 72 72 63 58 53 52 47 42 43 38 44 48 45 44 34 32 30 28 26 27 30 34 42 46 46 48 51

GFSFLT1_sfc_rhum_057.txt.gz
RH
77 81 82 80 80 75 72 68 68 70 71 71 71 71 66 73 46 65 69 66 70 75 75 69 67 74 76 73 72 73 68 64 68
74 78 78 77 75 72 68 66 68 71 72 72 72 72 74 54 51 66 64 68 73 72 74 75 73 73 72 73 76 77 78 75 78
71 75 76 75 72 69 67 67 69 72 74 71 72 71 76 49 42 54 63 73 68 67 67 69 71 70 71 69 72 75 76 75 74
74 74 74 72 71 70 71 72 74 73 71 74 77 76 78 52 42 45 60 75 67 67 64 65 66 67 68 67 68 70 71 72 72
78 80 76 71 71 73 75 76 73 69 70 77 80 79 78 42 44 53 62 67 66 64 67 65 66 66 66 66 66 66 64 65 67
66 74 80 80 77 76 78 75 70 78 82 80 79 81 44 40 40 52 75 66 65 65 66 65 62 63 62 62 60 60 61 61 62
43 68 80 78 84 83 82 74 74 79 49 57 72 50 39 38 40 60 75 65 64 64 65 63 58 58 58 58 59 60 60 61 61
46 55 58 57 80 60 72 67 47 39 38 43 38 37 37 34 38 67 76 66 62 63 62 58 55 56 56 58 59 60 60 59 59
42 43 50 51 52 56 54 52 43 38 33 34 34 36 35 30 35 63 79 69 61 59 57 55 54 55 55 56 58 60 59 59 60
40 40 42 45 44 47 45 45 43 39 34 31 33 33 29 26 30 46 81 74 63 56 55 53 50 53 54 54 58 57 57 58 58
45 44 43 42 43 43 43 45 43 39 34 32 30 29 25 24 28 39 65 76 68 57 54 49 48 50 50 51 54 53 51 53 54
47 47 48 46 44 43 44 44 42 38 33 31 28 29 25 27 26 34 54 63 72 65 52 47 46 46 47 47 48 47 45 45 48
48 50 49 46 47 49 47 48 48 42 37 33 30 28 28 26 25 34 37 53 48 61 56 49 45 46 42 42 43 41 42 41 42
48 48 49 45 49 59 52 51 48 47 43 37 33 30 31 29 26 31 38 41 42 45 60 57 55 46 40 41 38 38 39 39 40
52 51 48 46 52 58 62 54 52 47 44 34 32 35 31 32 32 31 32 38 44 42 46 50 47 49 39 37 36 35 36 39 43
55 56 52 51 53 55 63 58 57 54 46 46 40 40 35 30 32 34 35 41 41 41 40 38 35 42 46 44 42 38 40 42 42
58 60 59 54 56 56 64 63 63 56 49 48 51 56 44 36 32 32 33 36 38 37 36 35 35 38 39 47 45 40 36 39 43
66 64 64 65 60 62 62 67 67 65 54 47 49 64 63 47 39 35 34 33 37 36 36 33 33 34 38 51 47 45 47 44 44
82 77 71 74 73 67 66 65 75 67 64 56 46 48 46 58 54 44 38 36 33 36 39 33 36 36 41 49 51 53 46 43 44
78 79 82 82 81 81 73 71 72 72 65 62 65 52 52 47 60 56 50 40 40 39 37 37 33 33 40 49 51 49 46 44 46

GFSFLT1_sfc_rhum_060.txt.gz
RH
81 81 82 84 80 74 69 70 71 72 73 72 70 68 69 77 72 77 81 82 75 75 71 75 76 76 76 77 75 73 67 69 65
80 81 80 78 76 71 68 68 71 73 74 72 70 70 77 67 64 72 84 81 71 72 73 74 73 72 71 75 76 76 77 77 78
78 79 78 75 72 69 68 69 72 75 74 72 71 73 77 66 64 72 76 75 66 65 66 68 70 70 68 70 76 78 78 75 76
76 76 76 74 72 71 72 73 74 74 74 74 74 78 79 74 68 65 81 76 66 64 66 66 66 67 68 69 69 70 71 72 71
82 83 80 75 75 76 77 77 74 73 76 77 78 79 80 69 70 74 81 70 65 67 66 66 66 66 66 66 64 65 65 67 67
85 83 82 81 80 79 79 77 73 79 83 81 82 81 75 63 71 79 77 67 66 66 66 64 63 62 62 61 61 62 62 63 64
62 83 84 83 84 85 82 77 80 80 86 89 82 81 71 59 77 84 76 65 64 66 66 61 59 59 60 60 61 61 62 61 63
75 89 83 88 91 90 88 86 76 72 70 73 72 68 57 59 77 82 77 66 64 64 63 58 58 58 59 60 61 61 60 60 63
68 77 81 82 86 84 91 86 72 63 48 61 58 52 55 51 77 90 80 70 63 60 60 57 57 57 58 59 60 60 60 62 61
63 65 68 71 73 76 77 74 67 56 50 48 49 52 48 42 55 94 84 76 65 59 58 56 56 56 56 58 59 58 59 59 60
64 62 64 68 70 65 70 68 66 62 56 48 46 48 44 39 50 90 89 78 71 59 57 54 53 55 54 57 56 54 54 54 56
65 67 67 65 64 62 64 64 65 61 52 50 45 45 40 38 41 81 85 82 75 68 57 52 52 53 52 54 54 50 48 48 49
67 70 72 69 66 67 71 72 73 65 58 55 48 45 43 39 40 50 77 80 69 75 64 55 51 50 52 50 50 48 46 44 44
68 71 72 67 72 74 71 75 74 71 66 54 53 45 47 42 35 47 58 78 72 69 69 66 62 56 48 48 48 47 45 43 41
67 69 70 66 74 80 80 78 77 72 69 45 47 50 49 47 46 45 47 56 61 64 64 66 65 63 49 48 46 44 44 43 44
78 69 76 71 67 69 76 73 79 79 70 64 60 57 47 44 49 48 50 54 53 58 58 57 57 57 53 47 45 45 43 44 43
79 85 82 82 83 83 79 74 85 82 75 70 67 67 60 53 44 47 46 54 55 51 51 46 49 53 57 58 50 46 45 41 42
85 81 83 89 84 85 84 79 87 84 86 58 69 85 80 63 55 43 49 48 56 51 48 45 44 47 52 55 53 49 42 43 46
89 93 90 86 82 79 80 76 89 92 82 87 53 75 67 68 61 54 48 45 46 48 52 46 44 41 60 59 58 51 52 47 46
91 90 90 89 93 90 88 87 88 89 86 78 92 78 71 61 73 67 59 51 49 52 46 47 45 39 54 66 64 58 51 46 48

GFSFLT1_sfc_rhum_063.txt.gz
RH
77 80 84 83 78 72 72 72 72 74 73 69 68 68 73 76 83 89 86 87 75 72 76 74 76 76 77 74 73 69 70 67 66
80 82 81 81 78 71 71 71 73 75 73 69 68 70 78 70 88 86 84 78 72 72 74 73 74 73 72 76 78 77 76 77 76
81 80 78 75 72 69 70 71 74 75 73 69 69 74 79 70 86 87 85 74 67 67 67 66 68 69 70 72 78 79 76 76 77
79 80 77 74 72 71 71 74 76 75 74 71 72 78 81 80 81 76 87 75 66 68 66 66 66 68 68 69 70 72 75 74 73
84 85 82 78 76 76 76 77 76 75 75 73 78 81 80 85 83 84 86 70 67 66 66 66 66 66 66 64 66 66 68 69 68
89 88 85 83 82 81 80 78 77 82 83 80 80 82 80 80 85 87 79 69 67 66 65 65 64 63 62 62 63 63 64 65 65
82 89 87 85 86 86 83 79 81 83 93 89 82 84 80 88 88 90 77 68 66 68 64 62 60 61 61 62 62 62 61 63 63
91 97 93 96 94 97 93 91 90 87 86 82 80 77 73 90 90 85 77 67 66 68 63 60 60 61 62 62 62 60 61 63 62
90 92 92 96 97 97 97 97 84 75 74 78 72 70 62 85 96 91 81 72 66 65 62 60 60 60 61 62 62 60 63 62 63
83 90 88 92 95 94 98 96 88 77 64 66 65 62 58 67 94 97 84 78 70 62 61 60 60 60 60 62 61 61 61 62 62
69 78 82 86 85 84 87 89 87 76 61 54 55 58 56 48 86 97 91 81 75 64 60 58 59 59 59 62 60 59 60 60 62
67 69 76 74 79 75 83 82 79 72 63 58 53 54 51 45 89 96 95 86 81 72 60 58 57 58 58 61 59 56 55 54 56
73 73 75 70 72 74 78 80 80 74 68 60 56 51 49 44 61 93 90 91 76 77 70 62 56 57 57 58 58 54 52 51 50
73 76 74 76 77 76 75 81 80 79 73 61 57 52 52 47 40 73 89 87 81 82 79 73 67 62 57 56 56 54 51 48 48
71 75 76 76 83 85 86 81 86 81 73 51 52 58 53 53 51 50 74 82 78 77 75 79 75 70 60 53 54 52 51 48 47
86 77 82 81 73 76 85 85 84 85 78 69 68 63 57 55 54 52 57 71 74 74 70 70 69 70 66 58 53 51 50 49 50
87 92 90 88 88 87 90 85 93 92 89 80 69 64 60 58 50 55 50 58 62 66 62 60 61 65 66 64 61 53 49 49 49
94 93 90 93 91 92 92 91 90 92 97 85 78 84 73 70 62 48 50 50 63 58 59 53 53 54 60 61 64 63 51 48 45
92 95 95 97 97 92 84 86 89 92 94 96 76 86 77 72 69 71 69 65 62 64 61 54 49 48 58 64 66 63 53 45 46
94 93 94 96 98 96 96 95 92 93 89 88 91 84 94 78 79 80 86 74 67 61 54 52 48 45 52 61 61 57 51 50 48

GFSFLT1_sfc_rhum_066.txt.gz
RH
70 79 84 81 78 73 71 71 72 72 70 68 68 71 76 86 92 94 89 90 72 74 76 77 76 75 75 71 70 70 69 65 76
74 84 82 80 75 73 71 72 74 74 72 68 68 72 79 89 94 89 80 83 72 72 74 74 74 74 77 77 76 75 75 76 76
79 81 79 76 72 72 71 72 74 74 71 69 70 77 79 84 91 88 86 76 68 67 66 64 67 68 70 72 78 78 77 78 77
81 80 77 74 72 72 72 73 75 74 71 70 72 78 82 93 90 80 88 75 68 67 67 67 68 68 69 68 68 78 78 76 76
86 86 83 77 76 75 75 76 77 75 74 73 74 81 85 92 89 89 90 71 68 67 67 66 66 67 67 68 68 69 70 71 70
91 92 87 84 82 79 77 78 79 84 82 78 78 81 84 92 91 92 82 69 67 66 65 65 65 64 64 64 65 66 66 66 65
89 92 90 87 87 86 82 80 83 85 94 91 84 87 84 93 92 92 81 68 67 67 65 63 61 61 62 62 63 63 64 63 64
97 98 96 97 94 98 94 93 95 90 92 86 88 84 81 97 95 87 81 69 68 68 64 61 61 61 61 62 62 61 63 62 64
97 98 98 98 98 98 98 98 94 87 85 87 80 78 73 97 98 94 82 75 67 68 63 61 60 62 61 61 60 60 63 62 64
93 95 96 98 98 98 99 98 95 89 78 75 80 76 70 90 98 98 88 80 73 68 64 62 61 61 62 62 61 61 63 63 63
86 89 88 92 96 97 98 98 97 94 80 66 72 67 69 72 95 98 94 84 79 70 66 62 61 61 62 63 61 62 61 62 63
76 82 87 84 87 93 94 96 96 95 79 67 61 61 64 56 88 96 97 91 85 76 64 63 61 60 60 63 62 61 60 61 62
70 73 79 79 87 85 91 90 94 91 85 72 66 60 59 53 65 96 95 96 86 81 72 66 61 61 61 62 62 59 57 56 59
67 67 69 77 79 82 82 87 86 90 85 76 68 62 58 53 46 94 96 95 89 88 81 80 73 68 61 60 60 58 55 54 54
78 78 76 76 85 81 87 85 92 88 77 64 58 65 59 59 56 55 89 94 90 85 85 89 77 76 67 60 59 59 55 52 51
90 89 90 92 83 75 82 85 86 88 88 67 66 67 64 58 59 58 59 91 89 86 81 81 81 74 73 67 61 57 57 54 51
94 96 92 91 90 92 92 92 95 93 95 89 74 72 62 62 54 61 52 58 85 84 78 76 77 74 76 77 68 64 56 55 53
96 96 96 96 96 91 93 95 95 89 98 94 88 81 78 74 66 57 51 52 70 78 82 75 70 65 68 70 70 73 63 52 51
94 95 96 96 97 96 93 93 95 96 95 98 88 88 80 79 77 72 83 80 72 74 80 71 64 58 62 66 70 70 65 52 50
96 96 96 98 98 97 97 97 98 97 94 97 98 91 94 88 90 81 82 88 85 82 68 64 58 57 63 68 72 70 59 53 50

GFSFLT1_sfc_rhum_069.txt.gz
RH
73 78 84 80 78 72 70 69 68 69 69 69 72 77 85 84 83 95 88 87 74 75 75 77 76 75 70 69 69 70 64 75 75
79 85 81 78 76 72 70 71 72 72 70 69 72 76 87 94 94 92 93 84 72 70 69 70 72 76 75 77 75 69 74 76 77
80 82 78 76 75 71 69 72 72 72 69 70 73 82 86 87 91 90 89 78 68 65 65 66 68 68 70 73 79 78 77 76 77
81 81 78 74 72 72 71 72 73 72 69 69 75 80 88 93 93 84 91 76 66 65 65 65 66 67 66 62 62 79 79 79 79
87 86 83 78 76 75 74 73 75 74 73 74 78 82 89 93 92 92 91 72 66 66 65 65 65 65 66 67 65 65 73 74 73
93 93 87 84 82 79 76 77 80 84 84 80 82 83 95 94 96 96 84 70 67 66 65 64 64 63 63 64 65 65 66 66 64
92 94 92 88 87 86 82 81 84 86 94 94 87 89 87 95 95 96 85 70 68 66 65 64 63 61 62 62 62 63 62 62 63
98 98 97 97 96 98 94 95 96 92 92 91 92 88 86 98 97 89 86 70 68 68 65 62 61 61 61 62 61 61 61 60 62
98 99 98 98 98 98 98 99 96 93 90 91 86 86 83 98 98 94 89 80 68 69 64 62 61 61 61 61 61 61 62 62 62
97 98 98 98 98 98 99 99 98 95 88 84 88 84 81 89 98 98 92 85 76 69 67 63 62 62 62 62 60 61 63 62 62
94 97 97 98 98 98 98 99 98 97 94 84 76 80 81 74 94 98 96 89 83 75 68 64 62 62 62 63 62 62 63 63 63
86 92 96 92 95 96 98 98 98 98 94 91 75 71 73 72 82 96 97 94 88 83 67 66 64 63 62 62 63 62 62 63 63
84 87 88 87 95 92 97 97 98 98 98 96 82 68 66 68 62 92 96 97 94 88 80 73 66 64 62 62 63 62 61 61 62
81 78 78 86 89 91 90 95 95 97 96 95 89 78 67 63 53 72 94 96 95 94 86 83 79 73 64 63 62 62 59 58 58
84 81 78 79 82 88 95 89 96 90 87 81 78 80 72 66 63 56 78 94 94 94 93 90 84 81 72 64 62 62 61 58 57
92 90 91 92 88 79 85 86 90 93 94 86 82 72 62 59 60 64 61 88 94 94 88 86 94 83 78 72 66 62 62 59 55
97 97 95 95 94 94 94 94 95 95 96 93 80 86 73 68 61 62 54 57 91 96 93 87 87 85 78 77 73 70 61 61 58
97 97 97 96 97 96 95 95 96 90 97 94 92 88 87 83 72 65 63 56 76 95 96 91 85 82 76 78 74 79 71 60 59
96 97 97 97 98 98 97 95 95 96 96 99 94 95 87 89 89 73 75 81 79 81 95 93 82 78 78 76 80 82 76 60 56
87 94 98 98 98 98 98 98 98 97 97 98 98 98 97 89 93 92 91 82 84 84 78 84 88 85 87 88 83 81 83 64 61

GFSFLT1_sfc_rhum_072.txt.gz
RH
73 79 81 79 74 71 67 67 71 71 71 72 76 81 82 77 84 93 83 81 74 74 74 74 76 72 69 70 70 66 69 76 75
79 83 80 78 75 70 69 69 72 73 71 71 75 82 87 95 96 95 92 86 68 69 70 67 68 76 75 76 72 70 75 77 76
86 82 78 76 74 70 70 71 72 72 71 72 78 86 87 88 93 93 92 79 68 67 66 65 63 70 68 72 78 77 78 78 77
84 81 77 75 74 72 71 73 73 73 71 72 75 84 88 92 93 85 93 77 65 65 65 66 66 68 69 65 61 76 78 78 79
88 87 84 78 76 75 73 73 74 76 77 74 76 81 89 92 92 94 93 71 65 65 65 65 65 65 67 68 65 58 69 73 74
94 93 88 85 82 77 75 75 78 85 84 81 81 86 97 94 96 97 85 68 65 64 64 63 64 62 63 65 66 66 63 63 65
94 96 92 88 87 86 80 80 86 89 95 95 86 91 94 96 96 97 85 70 66 65 64 63 62 61 61 61 62 63 62 62 63
98 98 98 97 96 98 95 96 97 94 94 94 94 92 88 94 98 91 85 76 67 67 65 63 61 60 60 61 60 61 60 61 61
98 99 98 98 98 98 98 99 97 95 92 91 90 91 91 90 98 95 88 84 69 68 67 63 61 60 61 61 60 60 61 61 62
98 98 98 98 98 98 98 99 99 97 94 90 92 91 89 84 97 98 92 88 82 69 69 65 63 61 62 62 61 60 62 62 62
96 97 98 98 98 98 98 98 99 98 96 95 89 84 88 86 85 98 96 90 87 79 68 67 64 63 62 62 62 62 63 63 62
88 94 97 97 97 96 98 98 98 99 97 97 96 86 78 83 78 88 97 95 90 86 72 66 66 64 63 63 63 63 63 64 64
94 95 96 94 97 97 97 98 98 99 99 98 97 92 78 71 72 75 93 97 94 90 87 78 68 67 65 63 62 63 63 63 64
94 91 92 93 97 97 95 97 97 97 98 97 97 97 89 78 64 67 77 94 96 97 91 88 85 79 68 65 63 62 64 63 62
95 94 91 88 95 97 97 95 98 95 96 92 90 96 92 86 75 63 60 83 93 97 96 96 90 86 78 68 65 63 64 63 61
96 97 95 93 90 87 91 94 95 95 96 87 86 85 83 79 72 61 63 70 87 95 96 96 93 95 85 79 71 66 62 66 63
97 96 96 96 95 94 95 94 95 96 96 92 87 92 81 77 72 73 67 65 79 96 97 96 96 96 94 88 81 74 65 62 66
98 98 98 98 98 97 97 97 95 96 97 92 92 98 95 81 75 64 70 69 74 88 97 97 94 89 85 85 83 86 80 65 72
93 97 99 99 99 99 98 98 97 97 97 99 97 96 86 95 96 75 70 70 71 74 83 95 90 86 87 85 85 82 83 78 81
91 92 95 98 99 99 99 99 99 98 98 99 98 98 98 92 98 96 95 89 86 84 85 90 95 92 93 93 91 87 87 87 84

GFSFLT1_sfc_rhum_075.txt.gz
RH
78 77 78 75 72 67 68 72 72 74 74 76 79 79 79 73 65 61 71 66 70 67 69 75 74 70 72 70 69 66 76 76 76
80 80 79 77 72 69 69 71 74 73 73 74 80 82 89 69 68 70 70 66 69 70 69 66 73 75 74 74 71 75 77 77 75
84 80 78 77 72 71 70 71 73 72 73 76 83 85 85 69 68 68 66 75 68 66 66 65 65 63 69 72 76 76 76 77 76
84 80 78 77 74 72 74 74 74 73 73 73 78 85 87 61 62 61 59 76 66 65 66 66 66 67 71 68 63 74 76 77 76
87 87 83 78 76 74 74 75 76 77 76 74 76 79 87 60 64 60 60 69 65 65 64 64 64 64 67 69 67 63 62 66 69
79 88 86 84 80 76 75 76 80 84 83 79 79 85 61 62 61 60 78 70 65 64 64 63 63 62 64 65 66 66 65 64 61
78 86 92 87 87 86 78 79 85 83 63 58 73 56 64 64 63 62 83 76 67 65 64 62 62 61 61 61 62 63 62 62 63
78 79 77 78 88 74 76 75 72 74 66 61 54 59 60 57 60 69 84 81 70 68 66 64 61 60 60 60 60 61 59 60 60
79 77 77 78 75 78 78 75 74 75 70 63 57 57 58 56 56 65 89 83 76 68 69 66 62 61 61 60 60 60 61 60 61
72 73 74 74 75 76 76 76 72 72 70 65 61 58 56 54 55 57 90 88 83 76 68 69 65 63 62 62 62 61 63 62 62
69 68 71 70 71 70 72 72 72 70 71 68 65 61 56 55 56 55 59 89 86 82 74 67 66 65 64 64 64 63 62 62 62
69 67 67 66 67 69 72 72 73 74 71 70 66 66 62 60 53 53 56 61 88 88 78 71 66 66 65 64 64 64 63 63 63
74 72 70 66 68 69 70 69 70 72 70 67 64 66 67 62 57 52 52 55 56 72 84 82 73 67 66 65 63 64 65 64 63
77 74 72 70 71 72 71 69 70 68 67 68 67 69 69 66 63 58 56 54 57 57 75 90 90 84 72 66 64 62 65 67 64
79 76 74 72 74 74 75 73 73 71 67 71 71 69 66 65 63 63 60 55 58 58 62 63 65 89 82 72 66 64 64 69 67
81 81 81 81 78 76 75 76 77 75 76 77 69 67 63 68 67 57 56 56 57 59 62 62 61 62 86 83 76 69 65 65 70
86 85 85 83 85 81 77 77 79 80 84 79 78 80 65 60 58 57 57 54 52 54 61 62 62 64 67 71 84 81 69 65 65
91 91 90 90 89 88 85 85 85 88 87 82 88 92 85 76 63 55 54 51 52 54 60 63 62 64 72 75 76 87 83 70 66
78 80 87 95 97 97 93 89 89 91 94 93 90 86 85 96 90 74 66 64 57 59 56 57 62 66 64 75 84 86 86 78 72
78 78 80 85 90 95 96 95 96 93 92 93 92 91 93 88 98 96 88 69 68 69 61 65 66 64 70 75 80 84 79 77 76

GFSFLT1_sfc_rhum_078.txt.gz
RH
76 77 75 72 69 70 73 73 75 76 77 78 77 76 74 71 51 54 60 64 70 70 68 76 72 75 74 71 66 75 76 76 75
80 79 77 72 70 69 72 74 74 74 76 78 80 84 82 50 52 55 62 63 70 67 66 66 66 71 75 75 76 76 76 75 74
81 79 78 73 71 70 72 73 73 73 75 81 82 83 81 53 50 52 50 72 66 65 65 67 70 70 72 70 77 77 76 76 75
82 80 78 75 72 73 73 74 73 72 72 77 82 84 82 42 45 43 44 75 66 65 66 65 66 67 70 71 66 69 74 76 73
87 85 82 77 76 74 75 75 74 76 73 72 73 81 83 43 48 44 52 68 65 65 64 64 64 63 65 67 68 68 66 62 62
65 85 85 83 77 75 74 76 81 81 79 76 75 78 42 43 43 42 75 73 65 64 63 63 62 62 62 64 65 65 66 67 65
57 78 89 83 83 81 76 78 84 83 42 45 69 40 43 44 45 44 76 77 69 66 64 63 62 60 60 61 62 62 62 62 62
54 54 58 57 82 54 63 62 51 49 46 43 38 41 42 39 43 54 78 78 75 69 68 66 63 62 61 61 60 61 59 60 60
44 42 46 50 46 49 51 46 48 51 49 43 41 40 39 37 39 48 82 83 78 74 70 70 66 64 63 62 62 60 61 60 61
45 44 42 42 43 45 45 46 44 44 42 42 43 40 39 38 38 40 85 87 83 79 73 70 70 67 65 65 63 62 62 61 62
50 49 48 45 46 45 47 47 46 45 42 41 42 43 42 41 41 40 43 86 86 82 78 72 68 68 66 66 65 65 63 64 63
53 52 52 48 46 47 48 50 50 51 48 48 44 44 45 46 47 45 42 47 89 87 80 75 72 68 68 66 64 66 66 65 65
57 54 54 52 51 52 52 52 53 52 50 49 47 48 47 48 47 47 46 46 45 70 81 80 76 72 68 67 64 65 68 67 66
58 56 54 52 55 56 56 56 55 55 54 54 52 50 50 49 48 48 48 49 51 48 67 86 88 86 77 68 64 64 67 70 68
58 57 56 54 56 57 56 59 57 60 59 56 55 52 51 51 50 46 42 44 49 50 52 52 55 89 85 77 68 64 65 71 72
60 60 59 62 63 58 58 61 66 66 60 64 59 55 52 50 47 46 41 44 48 48 50 50 49 49 84 83 80 72 66 67 73
70 71 72 71 73 70 68 69 72 69 64 70 76 75 49 41 47 46 47 47 45 46 47 47 48 49 48 57 82 85 75 68 66
84 84 85 86 86 87 84 81 80 84 77 73 76 80 59 59 52 50 45 47 45 46 47 48 50 51 50 61 65 83 83 79 72
65 66 68 77 86 90 88 86 92 92 91 87 83 74 82 91 84 60 53 52 51 49 45 46 48 51 53 66 78 83 84 78 75
63 64 66 67 73 80 83 86 93 94 94 91 86 87 88 87 95 93 72 65 58 49 47 48 49 55 59 62 72 84 81 78 74

GFSFLT1_sfc_rhum_081.txt.gz
RH
76 74 72 71 74 74 74 75 76 78 78 76 75 72 70 76 49 69 64 66 69 66 66 74 72 75 75 72 74 76 77 76 75
78 76 73 71 72 73 74 74 74 77 78 79 80 78 79 50 56 63 61 64 67 64 64 69 73 73 74 77 78 77 77 75 74
79 78 74 71 70 72 73 73 73 74 79 80 80 79 82 48 45 47 56 72 66 64 66 66 65 71 74 72 75 78 78 76 74
81 80 76 72 71 72 73 73 73 73 74 80 81 80 82 47 44 39 52 75 66 65 64 65 64 65 68 71 70 68 68 70 68
86 86 82 77 74 74 74 74 74 74 72 71 70 75 82 47 45 44 60 68 66 65 64 63 62 62 64 66 68 68 68 67 65
66 86 86 82 78 75 73 76 80 78 78 73 71 78 47 40 42 43 78 71 65 65 64 63 62 62 62 63 65 65 66 66 66
56 78 88 83 81 80 76 77 83 82 46 56 72 49 38 41 43 49 74 73 69 67 65 63 62 61 61 62 62 63 63 64 64
54 58 64 63 85 61 71 72 60 45 43 40 37 38 39 37 41 58 77 73 73 70 71 67 64 61 61 61 61 61 61 61 61
40 40 43 46 44 44 47 43 43 46 45 39 37 36 38 36 38 48 80 78 76 74 70 73 70 65 63 62 62 61 61 60 61
39 39 38 38 38 40 41 42 40 40 38 37 38 37 36 35 38 40 83 82 79 77 75 70 72 70 66 65 64 63 62 63 62
45 45 46 42 42 42 44 45 45 43 40 39 37 38 40 40 41 42 49 82 81 78 76 74 70 69 70 67 65 65 64 64 64
47 49 49 47 43 43 44 46 48 49 47 47 44 42 41 45 44 46 48 54 87 84 75 74 72 71 67 68 66 68 68 67 67
53 52 52 50 49 50 50 50 52 51 50 49 47 46 49 47 46 47 48 52 48 77 82 78 74 72 71 67 67 66 69 71 69
54 53 52 49 52 53 55 54 54 56 54 54 54 55 53 51 47 48 50 51 55 55 71 86 85 83 77 71 66 66 69 73 72
54 54 54 52 55 56 56 57 57 62 63 59 59 58 56 53 52 50 46 44 49 53 57 63 65 87 81 75 72 67 66 74 76
55 56 57 59 61 58 57 60 64 70 67 76 69 64 57 54 53 50 47 46 49 51 54 56 56 56 86 83 77 74 73 69 70
65 68 72 76 79 71 71 72 78 75 74 81 82 86 61 46 44 50 48 48 50 51 50 50 52 58 58 72 77 74 76 76 72
80 84 87 90 93 93 90 91 91 91 87 81 87 82 71 62 58 54 51 49 52 53 53 52 53 55 58 65 68 84 81 79 76
63 64 65 71 83 88 90 88 90 90 91 88 90 88 85 86 79 61 59 55 54 54 55 48 51 56 63 73 87 83 82 77 75
59 60 62 62 67 72 76 78 80 86 88 89 88 91 92 92 99 91 82 70 64 53 55 59 60 62 67 71 78 81 80 78 77

GFSFLT1_sfc_rhum_084.txt.gz
RH
69 70 73 78 78 75 76 77 79 80 77 75 73 73 77 83 68 70 76 79 64 62 71 74 74 74 76 78 77 77 77 75 73
73 72 73 76 76 76 75 75 78 80 80 79 77 78 85 70 73 71 79 75 63 62 63 63 70 75 75 74 78 78 77 75 73
77 73 73 73 75 75 75 75 74 79 80 79 79 83 84 62 59 75 83 76 64 63 64 63 64 71 74 73 71 73 74 72 70
80 78 73 73 73 75 75 75 74 73 78 79 80 82 83 78 59 62 80 76 65 64 63 63 62 64 66 70 71 71 70 68 68
88 86 83 77 76 78 77 75 75 74 72 72 76 75 79 80 59 74 82 70 66 64 63 62 62 62 63 65 66 66 67 68 67
84 89 87 85 82 77 77 78 80 82 80 77 76 76 74 70 62 79 81 70 66 66 65 63 62 62 62 62 64 64 64 66 66
79 90 88 86 85 83 79 80 85 85 79 82 78 78 69 60 63 80 80 72 69 68 66 64 63 61 61 61 62 62 62 64 64
85 97 95 97 92 89 88 90 91 82 70 68 67 62 56 59 61 79 79 71 70 71 72 69 66 63 61 61 61 62 62 62 62
73 82 87 88 88 84 88 85 81 68 63 61 57 54 57 58 58 86 81 77 71 71 72 73 73 69 64 63 62 62 61 61 62
61 61 62 64 62 62 64 64 61 61 58 57 55 54 55 56 56 68 88 81 78 72 72 71 70 74 70 67 65 64 63 62 62
64 66 66 64 62 63 64 66 66 64 61 55 53 55 58 59 58 61 79 85 81 75 71 71 70 69 71 71 69 67 65 66 66
67 71 73 68 64 60 65 66 68 71 67 69 63 61 60 65 64 62 66 78 87 82 71 70 71 72 70 68 71 69 70 68 68
71 74 75 73 70 69 72 74 76 76 75 75 72 70 68 64 62 64 66 70 66 82 82 80 74 72 72 70 68 71 72 74 71
74 77 75 70 75 77 76 77 79 82 75 69 65 72 74 71 62 68 66 67 66 70 85 87 85 84 75 71 72 70 73 76 75
74 76 74 72 72 76 74 67 66 71 76 74 76 83 78 75 75 72 65 65 62 68 66 88 89 88 82 75 71 68 70 73 74
72 78 69 69 71 68 70 71 78 91 89 93 93 89 81 78 74 74 72 68 60 64 68 73 76 75 85 83 78 75 74 74 74
84 86 90 91 92 89 87 89 90 87 82 91 92 90 82 74 68 73 65 64 66 65 62 64 67 76 80 84 86 83 79 77 74
87 86 91 95 97 98 97 96 96 97 91 88 91 95 94 87 77 71 69 70 73 70 66 64 67 75 82 88 87 82 80 78 76
76 74 74 80 91 94 94 92 95 96 98 96 96 95 91 94 91 78 78 74 72 77 66 67 67 76 83 84 83 82 81 78 76
74 75 78 80 85 89 90 92 93 94 97 94 91 96 95 93 97 96 90 86 78 75 71 73 78 79 86 87 85 83 83 81 77

GFSFLT1_sfc_rhum_087.txt.gz
RH
71 74 76 77 78 77 78 79 80 78 76 76 76 78 80 82 80 84 78 75 61 64 69 74 73 75 74 77 77 78 75 72 71
71 77 78 77 77 76 76 78 79 81 80 78 78 78 81 75 81 85 84 74 62 61 62 64 72 73 72 74 75 74 75 72 70
71 74 76 76 76 76 75 76 79 79 78 77 77 81 84 67 82 87 87 75 64 63 63 62 63 72 74 74 72 72 71 69 70
74 76 74 75 76 76 76 76 74 76 77 75 76 78 82 78 80 71 86 75 64 63 63 62 62 62 64 68 70 70 70 68 68
86 85 81 77 77 78 77 76 75 74 71 71 72 74 79 77 75 82 86 72 66 64 63 62 62 62 63 65 65 66 65 66 66
90 91 87 85 81 79 79 79 79 80 80 77 75 75 76 79 76 84 81 71 68 67 65 63 62 61 61 63 64 63 66 65 66
86 92 90 88 86 84 80 81 85 84 86 86 82 83 73 71 78 85 82 70 68 70 69 66 63 62 62 62 62 62 63 63 65
97 98 96 97 93 95 91 93 95 91 87 82 82 76 71 65 68 78 82 72 67 69 72 72 68 64 62 62 62 62 61 62 62
98 99 98 98 97 97 96 98 95 92 84 71 69 62 63 63 64 88 85 79 68 67 70 73 76 72 66 64 64 63 62 61 62
82 92 96 97 95 94 96 92 86 81 73 70 68 61 60 62 62 80 90 82 78 69 67 69 70 74 74 70 68 67 66 65 64
70 72 72 72 70 67 69 71 71 70 70 63 61 61 64 64 64 68 82 87 81 78 68 66 68 70 69 73 72 71 70 69 68
71 76 77 72 70 66 72 74 77 78 74 77 72 68 67 66 70 68 72 81 89 82 70 68 69 70 72 70 71 75 72 70 70
74 76 82 79 75 74 76 78 79 83 83 82 78 76 74 72 70 70 72 74 67 83 84 80 74 72 71 69 69 71 79 77 74
79 80 80 78 83 82 80 83 86 88 84 75 71 74 78 80 70 75 74 71 71 69 82 87 85 83 74 70 69 68 70 75 76
78 81 81 79 75 76 79 75 74 74 77 76 78 81 88 86 85 81 74 75 73 79 76 82 87 89 81 78 75 75 74 75 74
74 81 77 78 75 75 78 79 83 85 87 88 88 88 90 90 88 87 84 66 71 70 73 71 77 80 86 84 83 80 78 76 75
86 86 91 92 92 91 91 92 93 90 86 88 91 94 85 82 79 85 72 65 65 65 66 72 79 92 93 88 84 82 79 77 76
85 87 92 93 95 97 97 97 96 98 92 88 89 92 96 94 84 78 75 68 73 76 76 76 76 88 90 89 89 84 82 78 76
79 79 78 81 90 94 96 92 96 96 97 96 96 96 95 92 95 89 83 78 72 76 74 75 74 76 81 85 85 84 83 80 76
77 79 84 86 90 92 93 93 94 95 96 98 94 86 95 96 99 97 94 92 81 83 75 74 78 79 83 92 85 80 79 78 77

GFSFLT1_sfc_rhum_090.txt.gz
RH
71 73 76 78 74 74 75 78 78 78 77 77 78 75 80 81 85 87 77 75 60 62 70 70 72 77 74 77 77 76 74 72 69
75 77 78 78 78 78 78 78 80 81 80 79 76 78 82 81 89 88 84 74 62 61 62 70 71 70 71 76 75 73 71 68 72
77 78 78 78 77 76 78 78 78 79 78 76 75 81 79 77 88 89 89 74 63 62 62 62 66 71 74 73 73 72 70 68 69
75 77 77 77 76 77 76 76 78 76 74 71 73 77 82 86 86 78 89 75 64 63 62 62 61 61 64 67 68 68 68 67 67
82 84 82 78 78 78 77 75 73 71 68 71 72 75 78 85 81 86 90 71 65 64 63 62 62 62 64 64 64 64 66 66 65
90 90 86 85 81 78 78 77 76 80 80 77 76 79 76 82 82 87 83 70 67 67 66 63 62 62 62 63 63 64 65 66 65
90 94 89 87 86 85 80 80 83 83 87 88 83 85 78 77 82 87 84 70 67 70 70 67 64 62 62 62 62 61 63 63 64
98 98 97 97 94 96 93 94 96 93 91 86 88 82 79 74 76 80 84 74 66 68 75 73 69 66 64 63 63 62 60 62 63
98 99 98 98 98 96 96 98 95 94 92 91 81 77 69 70 69 86 86 82 69 65 67 72 78 74 70 67 66 65 64 62 62
98 98 98 98 98 97 97 97 96 95 93 86 79 73 68 67 67 75 91 87 80 70 66 66 69 73 77 74 71 70 68 67 65
91 92 96 97 96 97 89 95 89 79 77 71 67 68 68 68 68 70 77 90 84 79 68 65 66 68 69 71 74 74 72 71 69
76 79 81 78 76 72 77 78 82 83 80 83 79 76 74 72 71 72 74 79 91 86 72 68 69 69 69 69 67 71 76 75 73
76 81 85 81 78 76 78 81 83 86 87 86 82 81 71 68 72 76 77 78 68 80 85 80 74 72 71 67 68 70 73 76 80
76 78 81 84 87 84 82 85 88 91 87 81 75 76 80 81 77 84 80 77 74 75 82 87 89 82 76 73 71 74 75 77 77
80 82 82 83 80 80 81 78 79 80 79 80 81 80 79 86 91 90 84 84 79 84 82 89 86 87 81 79 78 77 76 76 75
79 84 85 79 78 76 77 79 81 85 86 88 88 90 83 90 94 95 94 81 76 73 76 74 81 91 86 84 82 80 77 75 74
80 82 90 90 90 90 91 91 92 92 88 85 88 94 87 86 83 89 85 80 72 67 68 76 93 95 92 88 85 83 78 76 74
89 90 93 94 95 95 96 96 96 96 92 88 90 94 94 95 86 86 80 74 74 76 82 82 84 82 83 86 87 83 81 79 74
83 81 82 84 90 94 96 95 96 97 97 95 96 97 96 96 89 90 90 89 86 85 77 85 78 76 83 84 83 80 78 77 76
78 80 83 87 92 94 94 94 94 96 97 97 95 89 90 95 97 92 93 96 92 88 84 86 82 81 86 87 84 79 76 73 76

GFSFLT1_sfc_rhum_093.txt.gz
RH
70 72 77 80 80 78 78 77 78 78 79 77 76 78 80 81 89 88 79 76 60 65 70 67 67 76 77 74 72 74 71 68 71
74 77 75 76 76 76 78 78 79 80 80 75 77 79 82 85 92 89 85 75 61 61 66 69 67 65 65 66 66 67 67 68 70
76 77 78 78 77 78 78 79 80 80 79 74 78 83 79 81 91 91 90 73 62 61 62 62 66 70 71 72 72 71 70 68 68
77 79 79 78 77 78 79 78 78 77 74 71 76 81 84 91 89 82 90 75 63 63 62 61 61 62 63 64 66 66 67 67 65
84 86 84 79 79 78 77 75 72 70 68 71 76 80 82 88 87 88 90 70 63 63 63 62 61 63 64 64 64 66 66 66 65
92 92 87 86 82 79 78 76 75 79 77 77 78 79 80 84 85 89 82 71 65 66 65 63 62 61 62 64 64 65 64 66 64
90 94 90 88 87 86 80 79 83 85 89 90 84 84 82 80 84 90 81 74 67 68 68 67 64 63 62 62 62 61 63 63 63
98 98 97 97 94 96 93 94 96 92 92 88 91 87 84 84 76 84 83 77 68 67 74 74 71 68 65 64 63 62 61 62 62
99 99 98 98 98 97 96 98 96 94 94 93 92 84 80 77 74 78 86 84 73 67 67 73 79 77 74 70 67 67 65 63 62
98 98 98 98 98 98 97 97 97 95 94 94 92 84 80 73 72 75 84 89 82 73 67 66 70 74 77 75 74 72 71 69 67
98 98 98 98 98 97 97 96 96 95 83 79 77 74 75 73 72 72 74 83 88 80 71 68 67 68 69 69 70 77 77 74 72
95 95 96 96 97 92 91 84 87 90 86 89 85 83 82 80 77 74 76 79 88 89 74 70 69 70 64 65 68 72 76 77 79
80 82 82 81 80 80 84 86 88 90 91 91 86 86 75 71 70 70 81 80 71 78 85 82 74 75 70 70 71 76 77 80 79
77 82 84 89 87 84 80 84 88 91 88 85 78 77 78 78 75 78 87 85 82 82 84 88 87 81 74 73 76 76 76 76 76
78 80 81 86 89 91 84 76 82 81 82 82 83 84 91 86 94 93 90 92 87 86 87 90 95 88 83 79 76 75 75 74 73
80 84 85 88 88 80 80 82 84 87 88 87 88 88 86 90 94 92 94 94 86 90 84 88 92 87 84 82 79 76 72 72 71
78 82 85 87 88 87 87 88 89 89 88 84 88 93 88 89 87 88 85 90 82 76 77 85 91 91 97 90 82 78 75 73 72
94 95 96 96 95 95 95 96 96 94 95 90 88 94 97 96 88 87 83 80 87 92 89 82 78 83 92 86 86 81 77 74 74
93 94 93 93 96 96 97 97 97 98 98 96 96 96 96 96 94 90 94 85 82 83 82 81 80 85 90 85 84 80 76 72 71
88 86 86 91 94 93 92 94 95 97 97 98 96 94 95 94 97 96 96 94 86 86 89 92 84 86 84 86 88 82 78 72 73

GFSFLT1_sfc_rhum_096.txt.gz
RH
70 72 76 78 78 76 76 77 79 81 78 77 76 78 78 81 90 88 79 77 62 67 68 67 67 69 68 67 65 64 68 67 68
73 78 80 80 79 78 78 78 80 82 76 77 78 77 81 88 92 90 85 76 61 62 67 69 68 68 69 68 68 70 69 68 67
72 72 75 76 78 79 79 80 80 80 74 79 80 79 80 84 92 91 90 74 62 62 62 62 63 67 68 68 68 68 67 67 66
74 74 76 75 77 80 80 80 80 78 73 73 79 82 84 90 91 83 92 76 63 63 63 63 63 63 64 65 65 65 66 65 65
80 85 82 79 78 79 79 77 75 72 70 73 76 82 82 89 89 91 92 69 62 63 63 63 63 64 65 65 65 66 66 66 65
92 93 88 86 82 79 78 76 75 76 79 78 80 78 82 85 87 92 81 74 64 64 65 63 63 62 63 64 63 64 65 66 63
92 94 90 88 86 85 79 78 81 85 91 92 86 87 84 83 83 93 80 76 67 67 68 67 65 64 63 63 62 61 62 63 62
97 98 98 97 94 97 94 94 96 91 92 91 92 90 87 88 78 80 82 76 72 66 72 74 73 70 68 65 64 63 61 62 62
98 99 98 98 98 96 96 98 95 94 93 92 92 89 86 81 78 77 80 81 76 70 66 69 77 79 76 72 69 69 67 65 63
99 99 98 98 98 98 97 97 96 95 94 93 94 92 89 85 77 78 80 80 82 76 70 67 68 73 72 75 72 75 73 72 70
99 98 98 98 98 97 97 96 96 96 91 82 82 81 80 78 74 75 76 77 81 82 73 69 69 68 62 63 67 70 73 77 75
97 98 98 98 97 96 96 94 91 92 88 90 89 88 88 85 83 80 77 77 84 83 78 72 70 68 63 68 70 76 80 80 80
96 97 96 92 93 93 85 86 90 93 93 91 87 87 80 73 72 71 72 77 74 78 81 82 76 71 69 71 74 75 76 76 76
88 84 83 82 86 84 82 86 89 90 89 82 78 79 80 79 84 87 91 91 90 89 87 87 86 82 75 76 75 74 75 74 73
79 82 82 90 93 91 89 84 83 81 82 84 85 84 92 94 93 94 91 94 93 92 90 93 96 89 82 76 74 71 68 68 68
76 80 84 88 88 89 90 83 85 88 89 92 91 90 88 90 92 94 95 94 93 95 98 98 95 90 86 80 75 70 69 68 68
77 82 85 88 87 84 85 87 86 84 86 87 89 94 88 90 91 92 90 92 88 89 89 85 89 89 88 87 81 78 73 70 70
88 91 93 96 98 97 96 93 91 93 96 92 86 89 96 96 92 93 93 89 96 94 90 84 82 93 92 91 89 80 77 71 69
98 98 98 98 98 98 97 98 97 97 97 96 96 96 94 94 91 95 97 94 87 90 80 80 81 83 85 84 86 83 78 72 72
95 96 97 97 98 98 97 96 96 97 97 97 97 96 96 98 98 97 96 97 95 93 84 85 84 84 84 90 90 83 75 73 71

GFSFLT1_sfc_rhum_099.txt.gz
RH
70 72 79 80 80 75 77 78 81 80 79 76 75 73 77 74 58 58 59 54 64 65 68 70 70 69 67 67 68 67 68 67 64
73 76 78 78 78 78 78 79 80 77 78 78 75 75 80 57 60 60 59 56 61 63 66 67 67 67 68 69 67 67 66 66 63
72 79 80 78 78 78 78 79 80 75 79 79 76 78 78 60 59 61 59 69 62 62 63 63 63 62 63 64 65 66 66 64 65
75 76 76 74 75 80 81 81 80 74 74 81 80 82 82 56 58 58 58 74 63 63 64 64 64 64 65 65 66 66 66 65 65
74 86 83 79 79 82 82 80 77 72 72 73 77 84 81 58 63 58 59 68 63 63 63 63 63 64 65 65 66 67 67 64 66
70 87 88 87 82 79 77 76 74 77 80 79 78 78 52 52 53 58 75 74 64 64 64 63 62 62 63 64 64 64 65 65 63
74 85 91 88 86 85 78 77 78 74 56 59 72 51 53 51 51 56 79 74 69 67 68 67 65 64 63 63 63 62 62 62 62
74 78 76 75 85 70 73 72 64 63 59 59 56 58 56 49 49 57 80 76 73 68 70 75 74 70 68 66 65 64 63 62 61
79 77 78 76 73 72 71 68 68 68 67 64 60 60 55 50 49 53 75 78 75 73 68 68 72 78 77 74 73 71 70 68 64
82 81 81 79 77 74 70 70 68 67 66 64 61 60 55 53 52 49 79 75 74 76 72 69 68 70 67 68 73 76 76 74 73
84 84 83 77 76 73 70 67 67 66 64 56 54 53 50 50 51 49 52 77 76 75 73 70 69 67 62 63 69 72 74 74 76
82 82 81 76 74 74 75 73 67 65 62 61 58 58 56 57 56 58 57 62 83 78 74 73 72 69 64 66 73 77 76 77 79
80 80 78 75 73 73 71 65 62 64 65 62 60 60 61 65 65 65 58 62 59 73 80 80 78 72 67 69 75 75 75 74 74
77 77 75 72 70 68 67 60 60 62 64 68 68 65 73 67 64 60 62 63 64 63 82 87 85 82 71 74 74 73 70 68 67
77 74 71 66 67 66 65 62 65 65 73 76 73 65 64 61 61 60 60 63 69 69 70 68 76 88 82 74 70 67 67 69 68
71 70 69 67 68 68 66 68 70 84 82 77 64 62 62 61 62 61 65 69 72 74 76 74 72 76 85 80 77 73 69 67 68
73 71 70 67 71 72 77 81 86 72 75 68 75 73 57 62 65 63 65 68 68 73 72 69 70 73 80 79 81 77 72 69 67
87 87 83 79 80 86 87 88 80 78 80 76 69 76 74 73 68 70 66 66 70 69 69 68 71 72 73 76 82 81 75 70 70
98 98 97 95 97 98 99 94 90 88 87 86 82 81 81 79 74 73 72 68 69 70 66 67 72 74 76 85 87 85 78 71 70
99 99 98 99 98 98 97 97 95 93 88 86 84 81 86 86 86 77 79 75 71 70 67 68 69 71 75 77 83 82 76 74 68

GFSFLT1_sfc_rhum_102.txt.gz
RH
70 76 78 82 81 79 79 81 79 79 77 72 68 71 71 68 41 43 48 45 62 66 69 70 70 68 68 68 66 66 65 64 66
74 78 80 81 80 79 79 80 79 80 78 73 72 74 72 41 43 44 45 51 61 62 63 65 65 65 64 64 65 65 64 64 66
73 79 79 80 79 78 79 80 76 79 79 75 74 75 74 47 45 47 46 65 62 62 63 64 63 64 64 64 65 65 64 65 65
77 80 81 79 80 79 81 81 76 77 80 77 77 79 75 42 45 43 44 72 62 63 64 64 64 65 65 66 66 66 64 65 66
81 83 76 74 83 83 83 82 77 72 74 75 79 82 78 43 48 44 50 67 62 62 63 63 63 64 65 66 66 67 66 64 66
66 79 87 86 85 83 82 79 76 77 78 74 76 79 40 37 39 42 73 75 64 64 63 63 62 63 64 64 63 64 64 63 63
52 77 91 88 87 85 78 76 76 73 40 45 68 37 39 36 37 40 73 72 71 68 69 67 66 64 64 64 63 62 62 61 61
54 59 59 56 78 50 58 58 42 40 39 42 39 41 40 34 36 48 73 76 72 71 70 76 74 72 70 68 67 66 64 62 62
48 47 49 48 44 44 44 41 41 42 44 43 41 42 41 36 36 43 70 70 73 72 71 70 70 78 76 76 74 72 72 71 67
47 47 48 50 52 51 49 48 46 46 46 45 44 42 40 38 38 38 73 73 71 71 72 70 70 69 67 66 72 75 76 76 75
53 54 55 56 58 51 46 47 47 46 45 43 42 42 40 41 43 40 43 76 76 74 71 70 70 69 66 64 69 72 73 75 75
58 58 63 59 51 50 51 50 47 46 46 46 43 44 43 43 42 41 43 51 83 78 75 74 73 70 66 70 72 76 74 73 75
63 62 56 51 52 52 50 48 47 45 47 45 45 44 43 41 42 47 44 46 46 69 80 78 77 76 69 71 74 74 72 69 68
60 58 55 53 52 52 51 49 45 48 51 48 43 43 44 49 45 42 44 45 49 46 79 86 82 80 71 71 74 71 67 66 67
62 56 55 53 53 51 51 48 48 50 49 49 49 46 45 46 45 44 42 45 52 53 56 56 73 89 81 75 71 68 68 68 68
61 59 56 56 53 49 48 51 56 56 54 59 50 48 47 46 47 46 46 53 56 58 58 56 62 70 86 79 75 70 68 67 67
62 59 60 57 55 52 53 56 66 60 54 52 53 54 44 46 50 48 50 53 53 59 61 60 62 62 62 74 79 74 70 67 67
80 79 77 73 61 60 62 70 71 66 64 58 53 62 53 51 50 55 50 51 53 56 59 60 59 58 61 65 76 80 76 70 69
97 97 89 94 93 88 87 90 86 82 82 78 72 64 65 67 53 56 56 53 54 56 54 56 59 59 64 84 87 86 80 72 68
97 98 98 98 98 99 99 98 95 95 94 94 83 71 67 65 65 57 52 59 57 55 54 54 54 58 60 64 80 84 76 76 72

GFSFLT1_sfc_rhum_105.txt.gz
RH
72 77 82 76 78 81 79 78 77 78 71 67 67 66 65 74 41 44 49 52 63 67 67 67 64 66 65 65 65 65 64 66 65
76 80 80 77 82 80 80 79 79 78 74 70 68 68 70 39 43 44 50 58 62 62 63 64 63 64 64 65 65 64 64 66 66
77 79 78 80 80 80 79 78 79 79 75 72 71 68 72 44 43 46 53 68 63 63 64 64 64 65 66 66 66 65 64 66 65
76 77 68 80 79 80 81 78 78 80 78 75 74 72 74 47 44 41 51 72 63 64 65 65 66 66 67 67 67 66 65 66 65
80 82 82 83 83 84 84 79 75 81 82 79 78 79 80 42 46 45 59 66 62 62 64 64 64 65 66 66 67 67 65 65 65
71 79 86 84 86 85 84 80 77 80 79 76 78 81 44 36 40 44 79 72 64 63 63 63 63 63 64 64 64 64 64 62 63
51 83 89 87 88 87 82 79 77 76 47 51 69 45 38 36 37 51 75 71 71 68 68 67 65 64 64 64 64 63 62 61 61
57 71 68 70 86 64 70 68 53 44 36 38 37 38 38 35 37 62 75 72 70 71 70 75 75 73 71 69 68 67 65 64 62
50 54 55 52 51 43 48 44 38 38 37 38 38 38 38 37 38 55 73 72 71 70 71 72 72 79 76 77 75 74 73 72 70
46 45 46 46 41 41 43 42 42 40 38 40 40 40 39 37 39 41 79 74 70 67 69 70 71 74 71 72 70 74 75 77 77
48 48 51 48 47 44 43 44 45 42 42 41 39 38 39 38 40 42 53 78 76 72 70 69 70 73 70 65 68 70 74 74 75
52 53 55 51 47 44 44 43 42 43 42 42 41 41 39 41 40 42 44 56 83 79 72 73 74 73 67 66 71 77 73 71 70
55 65 58 56 49 48 47 47 47 44 44 44 43 44 43 40 39 41 43 47 44 76 81 76 76 76 70 70 72 72 69 66 66
62 59 56 49 50 50 49 47 44 45 47 47 43 43 42 42 41 41 42 47 50 52 81 84 91 80 72 75 72 69 68 67 68
61 57 53 50 52 51 50 48 47 46 52 48 44 46 57 58 46 45 43 46 52 54 58 68 81 89 81 77 72 69 68 67 68
63 60 58 64 58 52 48 50 51 55 52 56 61 60 44 45 47 46 45 52 54 56 59 70 74 77 87 80 74 70 67 65 66
62 61 68 71 72 62 53 52 58 59 58 63 64 58 47 50 49 49 50 51 54 57 59 61 65 75 74 80 79 74 68 67 67
75 72 76 79 90 83 78 68 69 79 75 67 57 61 64 54 56 55 51 51 55 58 62 61 62 63 67 74 78 82 80 72 69
87 86 88 95 96 94 99 97 93 83 86 81 80 77 74 70 58 61 59 55 53 58 60 60 62 62 69 81 88 86 81 73 67
93 91 97 98 99 99 98 99 99 99 99 95 94 87 89 77 78 72 66 62 58 58 58 58 60 60 66 72 87 86 80 78 75

GFSFLT1_sfc_rhum_108.txt.gz
RH
74 79 80 77 78 78 76 76 75 70 69 65 61 64 70 74 57 65 69 71 63 64 65 65 64 64 65 65 64 64 66 66 66
78 82 77 77 83 82 78 78 78 74 70 66 64 66 75 60 63 68 74 71 63 63 64 65 65 65 66 66 65 65 65 65 65
82 78 74 78 81 79 79 79 79 76 72 70 68 73 78 59 63 72 80 74 64 65 65 66 66 66 67 67 66 66 66 65 66
77 72 68 80 81 81 80 79 80 78 76 73 73 76 79 81 63 61 78 74 64 65 66 66 67 67 68 69 69 67 67 67 66
79 79 78 82 85 86 84 79 82 84 79 80 82 78 82 74 60 72 81 69 63 64 65 65 65 66 67 68 68 69 66 66 66
76 80 83 82 84 87 84 78 80 84 82 80 80 80 75 65 63 77 81 70 65 64 64 64 64 64 65 65 65 66 65 63 64
65 87 87 81 84 87 86 82 83 80 76 80 77 75 65 55 63 80 82 74 68 69 69 67 65 65 65 65 65 64 64 63 62
85 87 87 88 92 92 90 89 83 78 72 67 64 60 56 60 59 77 78 71 69 71 72 76 75 73 72 70 69 68 67 66 65
81 79 88 91 91 86 87 86 74 70 53 56 56 53 56 58 62 81 80 77 69 68 70 72 74 79 73 76 74 74 73 73 73
69 74 75 73 71 70 69 66 59 56 52 52 54 55 56 56 60 69 84 76 72 66 66 69 70 72 68 73 69 72 74 74 75
69 67 67 66 63 63 62 61 64 60 60 57 56 56 58 56 57 66 72 81 75 73 69 68 68 70 64 67 69 73 75 73 72
68 67 71 70 68 63 61 59 62 65 60 60 56 55 57 51 50 54 62 75 84 80 71 69 71 72 68 66 72 75 72 68 67
71 76 73 69 67 66 65 66 67 67 64 65 64 61 59 57 50 55 56 58 60 82 80 80 74 72 72 68 72 73 68 68 68
76 78 76 70 70 68 66 68 68 68 66 66 58 56 55 55 50 56 56 62 67 72 87 91 91 81 75 72 73 68 69 69 68
76 76 74 66 71 69 68 69 67 66 66 57 55 64 66 63 61 61 58 67 69 76 83 93 95 90 82 77 72 71 69 68 66
74 77 72 71 64 68 65 66 67 72 72 72 68 64 62 62 67 65 67 69 71 75 87 81 83 90 87 81 74 70 66 64 64
76 79 83 81 83 79 69 64 74 76 76 81 88 86 67 74 64 69 65 73 74 77 76 86 80 84 83 84 80 73 68 66 66
82 84 88 94 96 98 98 97 88 89 91 91 90 84 82 81 76 73 73 71 78 83 80 78 79 79 82 82 86 84 78 71 67
88 94 95 95 96 97 98 99 98 98 97 96 92 93 90 85 76 76 72 70 70 82 79 81 77 82 90 87 88 87 85 74 68
94 95 96 96 98 97 97 98 98 98 98 99 99 91 94 93 95 93 81 77 76 74 79 83 83 79 86 96 92 86 79 74 75

GFSFLT1_sfc_rhum_111.txt.gz
RH
78 78 82 82 80 75 74 70 68 68 66 62 65 68 74 70 74 79 74 74 62 64 65 66 66 67 67 66 66 67 67 67 68
81 83 82 83 82 77 76 72 70 69 67 65 66 71 78 69 78 81 80 74 63 64 66 66 68 68 68 67 67 67 66 67 67
82 79 83 84 82 79 77 77 74 72 69 67 68 75 79 68 79 84 86 75 65 66 67 67 68 68 69 69 68 68 67 67 67
80 77 78 80 83 82 82 79 78 74 72 70 72 76 82 77 76 71 84 75 65 67 68 68 68 69 70 71 70 68 68 67 68
79 75 79 80 86 85 83 82 82 78 78 77 79 79 80 79 74 80 84 69 64 65 66 66 67 67 68 69 69 68 66 68 66
71 65 83 83 89 87 82 84 88 89 86 80 77 79 78 81 81 85 80 69 64 64 64 65 65 66 66 66 67 67 66 64 65
61 73 85 83 89 89 85 82 84 83 83 83 78 78 73 68 82 88 82 71 67 68 68 67 66 66 66 66 66 65 65 65 65
73 75 85 88 90 96 95 94 91 88 83 78 76 66 64 68 80 82 82 74 71 72 75 77 74 73 72 70 69 68 68 68 67
80 72 82 90 98 97 97 98 92 86 79 74 71 64 63 66 76 85 82 78 69 69 70 73 75 79 74 76 76 74 74 74 75
87 89 91 97 97 96 97 95 86 80 67 56 61 62 59 63 69 78 87 81 77 69 67 68 70 72 72 69 72 74 76 74 72
81 82 87 90 87 86 84 81 75 66 60 57 63 64 63 63 66 68 76 83 77 75 68 67 67 69 65 67 73 74 74 70 69
78 78 79 77 73 72 72 69 69 70 65 65 64 63 62 60 56 57 60 76 85 82 70 68 69 71 69 65 73 75 71 67 65
71 70 71 72 76 74 71 70 74 72 69 70 66 66 63 63 54 59 64 68 62 84 80 79 73 73 71 69 74 74 68 67 66
72 75 79 75 75 74 73 75 72 71 71 66 68 70 61 57 52 59 65 67 74 84 88 90 90 81 76 72 73 70 68 67 67
74 82 77 75 78 75 75 71 72 69 67 60 63 66 63 64 70 59 63 73 79 89 94 96 98 90 84 77 72 69 68 67 66
75 78 79 79 73 69 70 72 72 74 74 76 78 69 62 75 64 69 78 78 80 90 96 97 97 94 90 86 76 69 66 64 65
74 77 85 85 83 80 74 72 77 75 76 82 86 82 75 69 67 77 76 83 84 85 92 94 95 96 86 88 84 79 74 68 68
83 86 91 92 92 96 94 92 87 91 96 96 90 92 85 85 79 79 76 82 89 90 88 89 88 88 85 82 84 82 80 75 70
93 93 95 96 97 98 98 98 97 97 96 99 96 96 92 80 87 80 75 73 81 90 88 86 86 92 95 89 88 88 85 76 72
94 97 97 96 99 97 96 97 96 97 97 98 99 98 99 98 95 94 82 79 79 87 88 87 86 85 95 96 91 86 80 73 74

GFSFLT1_sfc_rhum_114.txt.gz
RH
78 79 82 82 79 74 73 74 72 70 70 67 70 69 76 78 82 84 77 76 64 66 67 68 68 68 68 68 67 67 68 67 67
81 84 84 82 80 74 70 68 67 66 68 68 72 72 78 78 86 86 84 77 65 66 67 69 69 69 68 68 68 68 67 68 67
84 85 85 82 77 75 73 70 69 67 68 68 72 79 76 75 86 89 89 76 66 67 69 69 69 70 71 69 69 69 68 68 67
84 83 83 80 80 80 78 76 74 72 70 68 73 83 80 86 85 78 89 76 67 68 69 69 69 70 71 71 70 69 69 69 69
81 87 85 86 87 87 86 81 78 76 74 74 75 81 81 85 81 85 88 70 66 67 67 67 67 68 69 70 70 68 68 67 66
80 79 87 88 89 87 85 86 86 86 85 81 79 78 81 83 85 88 81 69 65 65 66 66 66 66 67 67 68 68 66 66 65
63 69 84 87 91 89 86 89 92 91 92 88 81 78 73 75 86 90 83 70 66 67 68 68 67 67 67 67 67 66 66 66 66
67 63 78 89 96 97 94 94 94 90 88 84 81 68 66 75 86 85 84 75 69 72 74 74 74 73 72 71 70 69 69 68 69
70 66 81 88 99 98 98 98 96 92 87 88 81 70 70 74 84 90 88 83 70 70 73 76 79 80 77 76 76 75 74 74 76
70 61 65 86 98 98 98 98 97 95 90 81 75 70 68 70 78 85 90 84 80 71 70 70 71 73 72 72 73 76 77 76 72
71 71 74 95 98 97 97 97 96 88 80 68 64 66 66 68 72 75 81 86 82 79 68 66 67 68 68 67 72 76 75 70 67
76 82 84 86 93 94 93 92 87 82 72 68 63 68 68 66 68 64 66 72 88 83 71 69 69 72 68 66 74 75 74 68 66
79 82 83 83 86 83 84 82 82 81 80 75 73 69 66 66 62 62 62 67 68 82 82 79 73 72 72 70 73 75 70 68 67
79 80 80 80 80 77 76 81 78 81 80 76 74 72 70 69 58 68 68 75 80 85 88 89 88 81 75 75 74 74 69 68 68
73 72 72 74 75 76 78 78 81 78 75 63 64 71 72 65 64 64 70 73 83 93 94 96 98 90 83 79 75 71 69 68 66
67 71 72 73 72 71 73 76 76 79 74 77 82 78 72 68 68 71 83 85 90 95 97 98 98 97 91 85 77 72 68 65 65
66 75 81 82 85 81 74 74 82 79 82 84 90 90 78 76 73 80 78 87 93 97 96 96 96 96 97 92 84 79 73 69 68
78 81 86 89 88 87 85 84 84 90 97 91 89 95 88 86 81 80 78 92 95 96 97 96 95 95 96 90 88 81 77 76 72
88 88 90 92 95 96 95 97 96 96 98 99 97 91 86 90 92 83 82 82 87 93 91 91 90 94 96 91 88 87 85 76 75
96 97 97 97 98 97 98 99 99 99 98 98 99 99 99 98 94 97 94 85 82 85 84 85 91 85 88 95 91 86 80 76 74

GFSFLT1_sfc_rhum_117.txt.gz
RH
74 75 75 76 73 74 71 77 77 69 73 70 76 80 81 82 90 88 79 80 66 67 69 69 69 69 69 68 68 68 68 68 67
78 83 82 81 76 75 75 73 70 69 72 71 72 77 78 84 91 90 87 80 67 68 70 70 70 70 70 70 69 68 68 68 68
85 84 83 79 76 73 70 68 66 70 71 73 73 77 78 81 91 91 91 77 67 68 70 70 71 72 71 70 70 69 69 69 69
85 85 82 77 75 74 73 70 69 70 71 72 79 80 83 90 91 83 92 78 68 69 69 70 70 71 72 71 70 70 69 70 70
88 88 85 83 83 83 82 75 73 75 76 76 81 82 84 89 86 89 91 72 67 68 68 69 68 69 70 70 70 68 68 67 67
90 88 90 88 88 88 85 82 82 84 81 77 80 82 85 88 86 89 83 70 65 66 67 67 67 68 68 68 69 68 67 67 67
80 88 94 92 92 91 89 90 90 89 95 89 80 83 81 86 88 89 85 70 66 67 68 68 68 68 68 68 67 67 67 67 67
80 79 85 90 95 98 96 98 99 96 92 86 83 74 74 80 89 83 86 75 68 70 72 73 73 73 73 72 70 70 69 69 70
74 67 91 92 96 98 98 98 96 93 91 90 89 78 73 80 91 90 89 85 71 70 74 79 81 81 78 77 76 75 74 74 77
71 65 79 83 96 98 99 98 97 96 94 91 90 83 78 75 82 89 91 88 84 73 70 70 71 73 72 72 75 77 78 77 74
75 69 67 84 93 98 98 98 98 97 94 87 79 73 76 73 74 81 83 89 84 82 72 68 68 68 68 66 72 75 77 72 67
77 68 67 78 92 97 98 97 97 96 86 84 73 67 73 72 72 71 74 78 89 87 72 70 69 70 70 67 72 76 75 68 66
78 75 75 78 89 97 98 97 97 94 90 82 76 72 74 72 72 70 69 70 70 83 83 81 74 73 72 70 69 78 73 69 67
80 74 74 83 85 92 91 94 90 90 88 83 79 77 77 73 66 72 69 70 78 85 87 86 89 81 75 73 71 78 71 70 67
82 73 75 81 84 87 85 83 85 85 83 70 71 79 80 80 77 72 70 76 85 93 95 96 97 89 81 80 76 74 72 70 67
89 79 78 80 82 81 80 78 82 80 82 79 81 81 77 76 77 76 75 80 86 95 96 98 98 98 89 86 79 74 72 67 66
93 79 80 82 83 80 76 74 87 80 83 84 92 89 84 84 81 84 83 89 95 93 96 97 96 97 98 94 86 79 72 69 69
88 85 81 84 84 86 84 81 86 90 94 90 88 96 93 90 86 86 88 93 98 98 98 97 96 97 97 93 87 81 77 75 72
88 88 87 86 88 91 90 93 91 92 94 98 98 94 89 91 94 90 92 94 93 98 97 96 93 94 91 89 88 86 84 74 73
91 88 89 91 92 92 96 98 98 98 98 99 99 99 99 98 95 97 98 96 96 94 89 91 88 87 88 91 89 86 78 76 74